GFSFLT2_sfc_temp_000.txt.gz
Temp
83 77 74 71 70 70 70 71 72 73 73 73 71 70 68 68 69 68 69 69 69 71 70 70 70 70 70 69 68 68 66 71
83 84 79 73 71 70 69 70 71 72 71 71 71 68 67 67 67 68 68 68 66 66 66 68 69 69 68 68 67 67 66 70
80 81 80 79 79 73 70 70 70 69 69 70 67 72 70 68 67 67 68 67 67 66 66 65 66 67 67 68 67 66 69 69
78 75 75 76 82 78 75 77 75 73 74 72 72 71 67 68 66 66 66 65 65 65 64 64 64 61 62 66 63 66 68 69
76 74 74 75 75 74 74 74 73 72 72 71 68 68 67 66 66 66 64 63 62 62 61 60 59 59 59 61 63 63 66 67
75 74 73 73 74 75 73 73 72 71 70 71 68 66 65 65 64 64 63 65 64 60 58 58 58 59 59 59 60 62 64 67
75 73 72 73 73 70 70 69 68 69 69 69 68 67 64 65 64 63 63 63 62 61 60 58 58 59 59 60 60 60 62 63
75 73 72 73 72 70 68 67 67 67 67 67 68 66 64 64 63 63 62 62 62 60 60 61 61 60 60 61 61 61 62 63
74 73 73 71 71 69 68 67 68 66 66 66 66 66 63 63 62 61 61 61 60 58 57 57 57 60 60 61 61 61 62 62
74 77 72 70 69 68 69 68 66 66 65 64 65 65 65 63 62 60 59 60 59 57 56 56 56 56 56 56 58 61 62 63
73 72 70 70 69 68 68 67 66 66 65 64 64 65 65 62 61 59 59 59 58 57 56 55 54 55 57 57 56 57 61 64
72 71 69 69 68 66 66 65 66 66 65 65 64 64 64 62 61 60 60 59 57 56 55 55 55 55 60 58 55 57 59 60
70 69 68 67 64 62 62 61 63 64 65 66 64 64 64 62 60 60 60 58 57 57 55 54 52 54 52 51 52 56 56 59
69 69 68 67 66 65 64 63 64 65 64 63 64 63 63 63 61 60 59 57 56 56 55 52 52 53 49 49 46 51 54 56
70 69 69 67 65 66 64 63 62 61 62 62 62 63 63 62 61 59 58 57 55 54 54 53 50 52 53 48 45 44 48 54
68 69 69 69 66 64 61 61 60 62 60 63 64 62 61 62 61 60 58 57 55 55 57 52 51 48 51 56 51 50 47 46
66 67 67 68 66 63 62 59 60 60 59 61 60 61 62 63 61 59 56 55 54 53 53 52 51 50 50 49 49 50 50 48
66 66 68 67 65 63 60 58 58 57 57 55 57 57 56 57 58 54 54 53 52 51 51 51 50 50 50 50 50 48 48 48
67 67 66 67 64 63 61 58 57 57 57 55 55 53 54 53 53 52 52 51 51 51 50 49 49 49 49 49 51 50 51 51
68 68 67 67 65 63 61 60 58 57 56 54 52 52 52 54 53 52 52 52 50 49 48 48 48 47 48 49 49 50 51 52

GFSFLT2_sfc_temp_003.txt.gz
Temp
68 70 71 70 70 70 70 70 70 70 70 69 69 68 68 69 69 69 69 70 70 69 69 69 69 68 69 68 68 68 67 67
69 68 69 67 67 69 69 69 69 69 69 69 66 67 67 67 67 68 69 68 69 69 68 69 69 68 68 67 67 67 65 65
70 69 70 67 68 69 69 69 69 68 68 68 65 65 64 64 66 67 68 68 68 68 67 67 67 66 66 66 66 63 65 65
68 68 68 70 76 67 67 68 66 66 67 65 65 63 62 64 65 66 66 66 65 65 65 65 64 60 60 64 61 62 63 64
67 67 67 67 68 67 66 66 65 65 65 64 63 62 61 61 60 61 59 62 59 60 60 59 59 58 58 58 60 61 60 63
66 66 67 65 65 64 64 65 64 63 64 63 61 59 59 59 58 58 58 58 58 61 57 56 56 58 57 57 59 59 61 61
64 65 65 66 64 63 63 61 61 61 61 63 61 59 59 59 58 58 58 59 59 57 57 56 56 57 57 57 57 59 60 60
64 64 65 65 63 62 61 60 61 60 60 61 62 59 58 58 58 58 57 57 56 55 54 55 56 58 58 58 58 58 59 60
65 65 64 64 62 62 60 60 61 59 60 61 61 60 59 57 56 55 55 56 56 54 54 53 53 55 55 57 58 61 61 60
66 71 64 63 61 61 61 60 59 59 59 59 61 61 60 58 56 55 56 55 55 54 52 51 51 51 51 52 54 56 57 60
64 64 62 62 61 60 59 59 58 58 58 58 60 61 61 57 55 56 56 54 54 54 52 51 50 50 52 52 51 52 54 60
64 63 63 62 60 59 58 58 59 57 57 58 60 59 60 57 55 55 56 54 52 53 52 52 51 50 55 54 50 51 52 54
64 62 61 60 58 56 56 55 57 56 58 59 59 58 60 58 55 55 55 54 53 53 52 51 50 50 48 48 49 51 51 53
62 62 61 60 58 57 57 56 56 57 58 57 58 58 58 58 56 55 55 53 54 53 51 49 49 50 47 45 42 47 49 52
62 62 61 59 60 58 56 55 55 56 56 55 56 58 58 58 56 54 54 52 51 51 51 50 47 49 49 46 44 41 45 49
63 63 62 61 58 57 56 55 55 56 56 56 56 57 57 58 58 56 54 52 51 50 53 49 48 45 47 52 48 47 44 44
60 61 62 62 59 56 56 54 54 56 56 56 54 54 56 57 55 53 52 50 51 49 48 48 47 46 46 45 46 47 46 45
57 58 60 60 60 59 56 56 58 54 53 52 52 52 52 52 53 50 49 49 50 49 49 48 46 46 46 45 44 43 45 45
58 58 58 59 58 57 57 57 57 56 53 50 49 49 49 50 51 50 50 50 50 50 49 47 46 45 44 46 46 47 47 47
59 60 60 60 57 56 56 56 56 58 54 50 47 47 48 50 49 49 50 50 50 50 49 46 44 45 43 42 44 46 47 47

GFSFLT2_sfc_temp_006.txt.gz
Temp
67 68 70 70 69 69 69 70 69 69 69 69 68 68 68 69 69 69 70 70 69 69 68 68 68 68 68 67 66 67 66 66
65 66 67 66 65 68 68 68 69 68 68 67 67 67 67 68 68 68 68 69 69 69 69 68 68 68 67 67 66 66 64 65
65 65 66 65 65 68 68 69 68 68 68 66 64 63 63 63 66 67 67 67 67 67 66 66 65 65 65 65 66 63 62 64
64 64 65 65 72 66 65 67 65 65 65 64 63 61 60 63 64 66 66 65 65 65 64 64 62 59 58 62 60 61 61 62
64 65 64 64 65 63 63 63 63 63 63 62 61 61 60 59 58 59 57 61 57 58 58 57 57 57 57 57 58 59 59 61
62 63 64 62 61 62 62 62 62 61 61 61 59 58 57 57 56 57 56 56 56 56 55 56 55 56 56 56 56 56 57 60
62 62 63 63 62 60 60 59 59 59 59 60 59 58 57 57 57 56 56 56 56 55 57 58 57 58 58 56 56 56 57 58
61 62 62 63 60 59 58 58 58 58 58 59 59 57 56 56 56 56 55 55 54 53 52 52 52 53 55 59 59 58 57 58
61 61 61 61 61 60 59 58 59 57 57 58 59 58 56 55 54 54 54 54 54 53 52 51 50 52 52 53 54 55 56 56
63 67 61 60 59 59 59 58 56 56 56 57 58 59 58 55 53 53 53 53 52 51 50 49 48 48 47 48 50 52 53 54
61 61 61 60 58 57 57 58 56 56 55 56 58 59 58 55 54 53 54 53 51 52 50 49 48 49 50 50 49 49 50 55
61 61 61 60 57 56 55 55 55 54 55 55 58 57 58 54 53 53 53 51 51 50 50 49 49 49 53 51 48 49 48 48
60 60 60 57 55 54 53 54 54 54 54 57 56 57 57 55 53 53 52 51 51 50 50 49 48 48 46 47 47 48 49 52
60 60 59 58 55 55 55 54 54 56 55 54 56 56 55 55 53 52 52 50 50 50 50 47 47 47 45 42 41 46 47 49
61 60 60 58 57 55 53 52 52 52 53 53 54 55 56 55 54 52 51 50 49 49 49 47 45 46 47 45 39 38 44 48
58 60 59 59 57 54 53 58 57 59 59 54 54 56 56 55 54 52 50 49 48 48 49 46 45 43 44 48 45 42 39 41
57 58 58 60 57 55 53 54 56 58 51 52 51 52 53 53 53 50 49 49 48 47 48 45 45 43 43 42 42 42 41 40
57 56 58 58 57 56 52 52 55 52 52 51 49 47 47 48 50 48 47 47 47 47 47 45 45 46 45 45 42 40 42 40
56 56 57 59 55 54 54 52 53 53 54 53 50 49 47 48 48 48 47 47 46 45 47 46 45 45 42 42 45 44 45 44
56 58 56 57 55 54 52 51 49 49 49 47 45 47 46 47 46 45 46 47 45 46 45 44 44 42 43 44 44 45 45 45

GFSFLT2_sfc_temp_009.txt.gz
Temp
66 67 69 69 69 69 69 69 69 69 69 69 69 68 68 69 69 70 70 69 69 69 68 67 68 68 67 66 66 66 65 65
64 65 65 64 64 67 67 68 68 68 68 67 67 67 67 67 67 68 68 68 68 68 67 67 67 67 66 65 64 65 62 64
64 64 64 63 63 66 67 68 68 67 67 66 63 62 61 62 66 66 67 66 66 66 65 65 64 63 64 64 64 61 61 61
63 63 64 63 69 64 63 65 64 64 64 63 62 60 60 62 63 65 65 65 64 64 64 62 60 57 57 60 58 59 59 60
62 63 63 62 63 62 61 62 61 62 62 62 60 60 59 58 57 58 56 61 56 57 56 55 55 54 55 55 56 56 56 59
62 61 61 60 61 62 62 61 61 60 60 60 58 57 56 57 56 56 55 55 55 55 54 55 55 55 55 55 55 55 55 56
60 61 60 61 60 58 59 59 60 59 59 59 59 57 56 56 55 55 54 55 54 54 54 54 55 55 55 56 56 57 56 56
60 59 60 60 58 58 58 57 58 57 57 57 58 57 56 56 55 55 54 54 53 52 51 50 50 51 52 53 54 55 55 56
59 59 59 59 59 58 57 56 57 56 56 57 57 56 55 55 54 54 54 53 53 52 50 50 49 50 50 50 50 52 52 53
59 64 59 58 57 57 57 56 55 55 55 55 56 57 55 53 52 52 53 52 52 50 48 48 47 47 46 47 48 50 50 51
59 59 58 57 56 56 55 56 54 54 54 54 55 56 56 54 52 52 52 51 50 49 48 48 47 47 49 48 48 47 48 52
59 58 58 57 55 54 53 53 53 52 53 54 55 55 55 53 52 52 51 50 49 48 48 47 47 47 51 50 47 47 47 47
58 58 57 54 53 52 52 52 52 52 52 55 55 55 55 53 52 52 50 50 50 48 48 47 46 45 45 45 45 46 47 47
57 58 58 56 54 54 53 52 52 53 53 53 55 55 55 54 53 53 52 50 48 48 47 45 46 45 44 41 40 43 44 48
58 58 58 57 55 53 52 51 51 50 52 51 54 55 57 54 54 53 52 51 50 48 47 46 44 44 45 43 38 36 39 44
56 57 56 57 55 54 51 54 55 59 57 56 56 53 56 57 56 53 52 48 46 45 47 45 44 42 43 46 43 42 36 35
53 54 56 56 55 54 52 50 53 55 54 50 51 51 52 54 54 52 49 48 48 46 46 44 44 43 43 41 40 39 39 36
53 55 56 57 56 54 51 49 50 49 50 48 50 47 46 48 49 49 48 47 46 44 46 46 44 43 44 43 42 41 39 36
53 53 53 53 52 52 52 50 48 47 48 48 46 43 42 43 46 45 44 44 45 46 44 44 44 43 42 43 43 42 42 39
51 52 52 52 51 51 49 48 46 47 45 45 43 42 41 43 43 45 45 45 45 45 44 42 42 41 42 42 42 41 41 40

GFSFLT2_sfc_temp_012.txt.gz
Temp
64 65 68 69 69 69 69 69 69 69 69 68 68 68 68 68 69 69 69 69 69 68 68 68 68 67 66 65 65 66 63 63
63 63 64 63 63 67 68 68 68 68 68 67 66 66 67 67 66 68 68 68 67 66 66 66 65 65 65 64 64 64 61 62
63 63 63 62 62 65 67 68 67 67 67 66 63 61 60 61 65 66 66 66 66 65 65 64 63 62 63 63 62 59 60 61
63 63 63 62 67 63 62 64 63 63 63 62 61 60 59 61 63 65 65 65 64 64 63 62 59 55 55 59 56 57 58 59
63 63 62 62 62 61 60 61 61 61 61 61 60 59 58 57 57 57 55 61 55 56 55 55 55 54 54 55 55 55 55 57
63 62 61 60 60 60 60 60 60 60 60 60 58 57 56 56 55 55 55 54 54 54 54 54 55 55 55 55 55 55 55 56
60 60 59 59 59 59 59 60 60 60 59 59 58 56 55 55 55 54 54 54 54 54 53 52 52 53 53 54 54 55 55 55
59 58 58 58 56 57 57 57 57 57 57 58 58 57 55 55 55 54 54 54 53 52 51 50 49 50 51 52 52 52 53 53
58 58 58 57 57 57 55 55 56 55 55 56 56 57 55 55 54 54 54 53 52 51 50 49 48 49 49 50 50 51 52 52
57 62 58 57 56 55 55 55 54 54 54 54 55 56 55 53 52 52 53 52 51 50 48 48 47 47 46 47 48 49 50 51
57 58 57 56 55 54 54 54 53 53 52 52 54 55 55 52 51 51 51 50 49 49 47 47 46 46 47 47 47 47 49 52
58 57 56 55 53 52 52 51 52 51 52 52 54 54 54 53 51 51 50 49 48 46 47 46 47 47 51 50 46 47 47 47
57 56 56 53 52 52 51 52 52 52 52 53 53 54 54 53 52 51 50 50 51 48 46 46 45 45 45 45 45 46 46 47
56 56 56 54 52 52 51 50 51 51 52 52 53 53 54 54 53 52 51 51 47 47 46 44 45 44 44 41 41 43 44 46
55 55 55 54 54 53 52 51 51 51 53 51 54 53 54 53 55 54 52 51 51 50 48 45 46 43 44 44 37 37 38 43
54 55 55 56 54 52 50 49 49 52 52 53 55 52 51 53 53 52 51 50 48 45 46 45 43 41 42 46 43 42 38 37
50 53 54 54 52 51 49 50 52 50 50 48 50 50 48 50 50 50 47 45 45 47 44 44 45 43 44 42 40 40 40 38
50 51 52 53 52 52 49 46 46 46 47 46 47 46 44 44 46 44 43 42 42 42 44 45 44 44 43 43 42 40 40 38
51 50 51 52 53 50 47 46 45 45 46 46 45 43 40 39 41 42 42 41 42 43 42 43 42 41 41 41 42 40 40 39
50 50 51 50 48 47 47 47 45 46 45 44 41 40 38 40 41 41 42 42 42 44 43 42 41 39 38 39 40 41 41 42

GFSFLT2_sfc_temp_015.txt.gz
Temp
75 76 74 69 69 69 69 69 69 69 69 68 68 68 68 69 69 69 69 69 68 68 67 67 67 66 66 65 65 65 73 73
74 75 75 75 75 68 68 68 68 68 68 67 67 67 67 67 67 68 68 68 67 67 66 66 65 65 64 64 63 66 73 73
73 73 74 73 74 73 70 68 68 67 68 66 67 74 72 71 67 66 67 66 66 66 65 64 63 63 63 63 64 73 73 74
74 73 73 72 75 74 74 73 75 74 73 72 74 71 72 70 68 65 66 65 64 64 63 62 65 71 72 66 73 71 72 72
73 72 72 72 73 75 75 75 74 74 72 72 71 71 71 71 71 71 70 65 69 67 68 69 67 67 68 68 69 69 72 72
74 73 71 71 73 74 74 73 74 74 73 70 71 71 69 69 70 69 68 69 67 68 67 66 66 66 66 66 66 69 72 72
74 72 70 70 69 72 71 71 72 73 72 71 71 70 69 69 68 68 68 68 68 67 67 66 65 65 66 66 66 67 68 71
72 70 70 70 70 69 71 70 71 71 71 71 69 69 68 69 68 68 68 68 68 66 65 66 65 64 64 64 65 66 67 67
70 70 70 69 69 69 70 71 69 70 70 68 68 68 68 67 68 68 69 68 66 65 64 64 64 63 63 63 64 64 66 65
70 71 70 69 68 70 70 70 69 69 68 68 67 67 67 67 67 67 69 66 66 65 65 64 64 64 64 66 65 64 64 64
70 70 70 69 68 69 68 67 68 69 67 68 67 66 66 66 67 67 66 66 65 64 64 62 64 64 64 64 64 64 64 65
70 70 68 67 68 67 67 67 68 67 67 68 66 67 65 65 66 65 65 65 64 63 62 63 63 64 64 64 64 64 63 64
69 69 67 67 67 67 67 67 68 68 69 66 65 66 65 64 65 65 64 63 63 63 62 60 60 61 59 61 61 61 61 63
66 66 65 65 66 66 65 64 66 65 65 65 65 64 64 64 63 64 64 62 62 61 59 60 60 61 59 59 56 60 60 60
64 64 64 64 63 66 66 65 65 66 67 67 67 64 63 62 62 62 62 62 60 61 61 59 59 60 59 59 55 53 59 59
63 64 65 64 63 63 60 61 60 63 62 63 63 62 62 61 60 60 60 60 59 59 61 58 57 57 56 57 55 55 53 53
61 63 63 62 61 60 60 59 60 60 60 59 59 61 60 59 57 57 57 58 57 55 56 55 56 56 54 53 52 53 52 50
61 62 62 62 61 60 58 57 56 57 58 58 59 59 58 55 54 53 53 52 52 52 51 50 50 50 50 48 48 47 47 45
61 61 61 60 59 57 57 56 56 55 56 57 55 55 55 52 52 51 51 51 51 51 48 45 43 41 40 39 39 37 38 38
60 59 59 59 58 57 56 57 56 55 55 54 52 52 51 50 51 52 51 51 51 48 44 42 41 40 39 39 38 39 39 39

GFSFLT2_sfc_temp_018.txt.gz
Temp
86 86 78 70 70 70 70 70 70 70 70 69 69 69 69 69 69 70 69 69 69 68 68 67 67 67 66 66 66 66 80 83
86 85 86 85 84 69 69 69 69 69 69 68 68 68 68 68 69 69 68 68 67 67 66 66 65 65 65 65 65 68 81 81
84 85 84 84 85 79 71 69 69 68 70 68 69 84 81 78 67 67 67 67 66 66 65 64 64 64 64 64 64 82 80 83
86 83 82 83 86 84 83 83 86 84 83 81 85 80 80 77 72 66 66 66 65 64 64 64 65 81 79 67 80 78 79 80
84 82 81 81 84 87 88 88 86 85 81 80 81 79 80 80 80 80 79 70 79 75 76 79 75 76 78 77 77 76 79 80
85 83 80 80 85 86 87 85 86 84 84 78 79 80 79 78 79 79 77 79 76 77 78 74 74 74 74 74 74 76 80 80
85 83 81 81 79 84 83 81 84 82 82 81 79 79 78 78 77 78 78 78 78 76 77 76 74 74 74 73 74 74 74 78
85 83 81 81 81 80 82 82 83 82 82 81 78 77 77 77 77 78 79 79 78 77 76 75 75 74 73 72 73 74 75 74
84 82 82 80 80 80 82 84 81 81 82 79 77 77 77 76 77 77 78 78 75 75 74 74 73 75 72 73 72 72 73 72
84 82 81 81 80 82 83 84 81 81 81 79 77 75 75 75 76 76 77 76 76 75 75 74 73 73 72 74 74 74 72 72
82 81 81 81 80 81 80 78 79 82 80 80 78 76 75 74 75 76 75 75 75 74 74 73 71 73 73 73 73 73 73 74
81 81 79 78 81 79 80 80 80 80 80 80 77 76 74 73 74 74 74 73 73 73 71 73 72 71 73 73 72 73 73 72
78 77 75 79 81 77 79 77 78 79 80 76 75 75 73 72 73 73 72 72 70 70 70 68 69 71 67 68 70 71 69 71
75 75 74 76 80 78 75 74 77 76 76 75 75 72 72 72 70 70 70 70 69 68 67 67 68 69 65 65 62 67 70 70
74 74 74 73 73 77 77 77 76 75 71 72 73 71 70 70 69 68 68 68 68 68 67 66 64 67 68 63 60 59 65 71
73 73 73 72 71 72 69 70 67 68 70 71 70 70 68 68 67 67 66 66 65 66 67 65 64 62 66 66 65 63 58 56
72 72 72 71 70 68 69 67 69 69 68 65 67 69 69 68 66 64 64 64 63 61 60 60 61 58 59 57 53 55 59 55
71 71 71 70 69 68 66 64 62 63 65 64 66 66 67 66 64 62 61 61 59 58 53 50 49 49 47 45 44 42 44 42
70 70 69 70 67 65 63 65 64 63 63 63 61 62 63 62 60 60 62 58 54 52 50 47 44 41 40 39 39 38 38 36
68 68 68 68 67 65 66 65 65 64 63 61 59 60 60 59 59 60 58 57 54 50 47 44 43 43 44 43 43 42 43 42

GFSFLT2_sfc_temp_021.txt.gz
Temp
89 86 77 71 71 71 70 71 70 70 70 70 70 70 70 70 70 70 70 69 69 68 68 67 67 67 67 67 67 68 76 84
90 90 89 87 81 70 70 70 70 70 70 69 69 69 70 70 70 69 69 68 68 67 67 66 66 66 66 66 67 67 77 84
89 90 88 87 88 79 71 70 70 69 71 69 71 83 83 78 68 68 68 67 67 67 66 66 66 66 66 67 67 80 82 83
89 87 86 86 90 86 85 86 87 85 85 83 85 81 81 80 72 68 68 68 68 67 66 66 66 81 77 68 78 81 80 82
89 85 85 85 85 88 90 90 88 87 84 82 83 81 82 82 82 81 79 71 80 73 75 78 78 77 78 78 79 78 80 82
88 86 84 84 88 89 88 88 87 86 84 82 81 81 80 80 81 80 80 81 79 79 79 78 76 76 76 75 75 77 80 81
89 87 84 85 83 86 85 84 86 83 85 83 82 80 79 80 79 80 80 81 80 79 79 78 77 76 76 75 75 75 76 77
90 88 85 85 85 84 83 84 85 85 85 82 80 80 78 78 78 79 80 81 81 79 77 76 76 76 75 75 74 75 77 76
89 88 87 84 84 84 85 87 83 84 85 81 80 79 78 77 78 78 79 80 78 78 77 77 76 77 75 76 75 73 74 74
89 89 86 84 85 85 86 87 84 84 83 83 80 79 78 76 77 77 78 77 77 76 76 75 75 75 74 75 76 76 74 74
87 87 84 84 84 85 83 82 82 84 83 83 81 79 78 76 76 76 76 76 75 75 75 74 73 74 74 76 75 74 74 76
85 85 84 82 83 82 83 82 83 83 82 82 79 78 77 75 75 75 75 74 74 74 72 73 72 72 74 74 74 76 75 74
83 82 78 81 82 79 80 79 81 81 82 79 77 77 75 73 74 74 73 72 72 71 71 69 70 72 70 70 71 72 72 73
80 79 78 80 82 79 77 76 78 79 79 77 77 74 73 73 70 70 71 70 69 69 68 67 69 70 66 66 62 67 72 72
78 78 77 76 76 80 78 78 78 77 76 76 76 74 72 70 69 69 68 68 68 68 67 66 64 67 68 64 58 58 65 71
76 76 76 76 74 74 71 72 71 73 73 74 72 71 71 71 70 69 66 66 65 65 67 64 63 61 65 67 63 59 52 53
75 76 75 74 73 71 71 69 71 71 69 67 68 70 70 70 69 67 64 64 64 62 60 58 59 56 54 52 54 57 57 48
74 75 76 75 73 71 68 66 66 66 67 66 67 67 67 67 67 65 63 62 61 57 55 52 50 50 48 45 42 39 39 38
73 74 73 74 71 70 69 68 67 65 65 65 62 63 63 63 62 61 62 59 56 54 52 51 48 45 45 44 43 40 39 38
72 71 71 73 72 70 69 68 67 65 64 62 60 60 61 62 61 60 57 54 52 51 51 49 50 49 48 48 48 49 49 48

GFSFLT2_sfc_temp_027.txt.gz
Temp
67 69 70 69 69 69 69 69 69 69 70 69 69 69 69 70 70 70 69 69 69 68 68 67 68 67 67 66 66 66 63 64
68 67 67 66 66 68 68 68 68 69 69 69 68 68 69 69 69 69 69 69 69 68 68 67 67 67 66 66 65 66 62 64
70 68 68 66 65 69 68 69 69 68 68 68 66 66 67 68 68 68 69 68 68 68 68 67 66 66 66 66 66 61 63 64
73 71 68 68 76 67 66 69 67 67 67 66 66 65 66 70 67 68 68 68 68 67 67 67 66 62 62 65 61 62 63 64
72 72 72 71 70 66 66 66 65 66 68 68 68 68 66 65 62 63 61 65 63 64 63 62 62 61 63 62 62 63 61 62
72 72 72 70 69 68 67 68 67 67 68 68 65 63 63 63 62 62 61 61 60 61 60 62 61 64 64 63 63 62 61 60
73 72 70 71 70 67 68 67 67 67 67 67 66 64 63 63 63 63 63 62 62 61 62 63 63 64 64 63 63 63 62 61
74 73 69 71 69 68 67 67 67 66 65 66 67 64 63 62 62 62 62 61 61 61 61 61 61 62 62 63 63 62 63 62
72 67 70 68 68 69 67 67 68 65 65 66 66 66 64 63 61 60 61 61 61 61 61 60 59 62 61 61 62 61 61 62
71 71 65 65 65 68 68 66 65 65 64 64 66 66 65 62 61 60 61 61 60 59 58 58 58 57 57 58 59 60 61 62
68 65 65 65 64 64 64 67 67 65 65 63 65 65 64 60 59 60 59 59 58 58 57 56 56 56 59 59 57 57 58 64
69 68 64 64 63 65 63 63 63 63 62 63 64 63 63 60 60 59 57 56 56 55 54 55 54 55 61 61 56 56 57 56
66 64 62 65 62 61 60 59 61 61 63 65 65 63 62 60 58 57 57 55 54 54 53 52 54 53 51 54 52 54 55 56
64 64 63 63 61 60 60 59 61 61 61 61 61 61 61 61 56 55 55 54 52 51 51 50 49 50 47 48 47 51 52 55
63 63 63 62 61 60 60 59 58 58 59 59 59 59 58 57 56 54 52 52 50 50 48 46 45 46 46 44 41 41 44 50
62 64 63 63 62 59 57 54 53 54 55 56 57 56 57 57 55 52 51 51 50 48 48 45 44 41 43 48 45 45 38 40
61 62 62 62 61 59 56 55 56 56 55 53 52 54 54 54 54 52 50 49 47 46 45 48 48 46 44 39 39 39 39 36
60 61 62 61 60 59 57 55 54 53 51 49 50 50 50 51 53 49 48 47 47 49 48 47 46 45 41 38 38 39 37 36
60 60 61 61 58 56 55 54 54 54 53 51 49 47 47 47 47 47 47 47 48 48 47 43 44 41 39 38 38 38 39 38
59 60 60 58 56 55 53 53 51 50 50 48 47 46 46 47 47 46 45 45 44 45 43 44 43 41 39 41 43 39 42 39

GFSFLT2_sfc_temp_030.txt.gz
Temp
65 67 69 69 69 69 69 69 69 69 70 69 69 69 69 70 70 70 70 69 69 69 68 68 68 67 67 67 65 66 61 62
63 64 65 64 65 68 68 68 68 68 69 68 68 68 68 69 69 69 69 69 69 69 68 68 67 67 67 66 65 65 60 61
64 64 64 64 65 67 68 68 68 68 68 68 65 65 66 67 67 68 69 69 68 68 68 67 67 66 66 65 66 60 60 61
66 65 64 65 72 66 65 68 66 66 66 65 64 63 63 67 66 68 68 68 68 68 67 67 65 60 60 64 61 61 60 61
68 67 65 65 68 64 63 64 63 64 65 64 63 65 63 63 61 62 61 64 61 63 62 61 60 59 60 59 61 61 58 60
70 68 67 66 65 64 64 64 64 64 65 65 62 61 60 60 60 60 59 59 59 59 58 60 60 61 61 60 61 59 59 60
70 68 67 67 65 64 65 64 65 65 64 65 63 61 60 60 60 59 59 59 59 59 59 60 60 61 61 61 61 61 60 60
67 67 66 65 67 67 66 65 65 64 63 64 64 62 61 60 59 60 59 59 59 58 58 58 58 58 59 61 61 60 60 60
70 66 67 67 67 66 66 66 64 63 63 64 64 62 61 60 59 59 58 58 58 58 57 57 57 59 57 58 58 59 58 59
68 68 66 64 64 63 63 65 62 62 62 61 63 63 62 59 58 58 57 57 56 55 55 54 54 54 54 57 56 57 58 58
62 63 62 62 62 62 62 62 61 61 60 60 62 63 62 58 57 56 56 56 54 54 53 52 51 52 57 57 54 54 55 61
62 61 62 62 60 59 59 59 60 60 59 60 59 59 59 57 56 55 55 54 53 52 51 51 50 50 56 56 51 52 52 52
60 59 59 58 57 56 57 57 58 58 59 59 58 58 59 56 54 54 53 52 50 50 49 49 48 48 46 50 49 51 50 50
59 60 60 60 58 57 57 56 56 56 56 56 57 56 56 57 52 52 51 50 50 48 47 46 46 45 43 43 42 49 46 51
59 60 60 59 59 58 56 56 54 54 54 53 53 54 54 53 51 50 49 49 48 46 45 45 42 43 45 46 41 37 41 46
59 60 59 60 59 57 56 53 52 52 51 51 51 52 52 52 51 49 47 47 46 45 46 43 45 45 46 48 46 43 37 35
57 59 60 59 57 56 54 53 52 51 49 49 50 50 51 51 50 47 46 46 45 45 44 44 43 41 40 42 37 36 36 36
56 58 57 57 55 54 52 51 50 49 49 47 47 47 48 47 48 46 45 44 44 43 43 42 41 40 40 38 37 35 34 37
56 57 55 56 55 53 52 50 49 50 50 46 46 45 44 44 45 44 44 44 43 42 41 41 40 39 40 38 38 37 39 38
55 56 55 54 52 51 50 51 49 48 47 45 43 43 43 44 44 44 43 43 42 41 40 41 41 39 38 38 38 41 40 41

GFSFLT2_sfc_temp_033.txt.gz
Temp
64 66 68 69 69 69 68 69 69 69 69 69 69 69 69 70 70 70 70 69 69 69 69 68 68 68 67 66 65 66 60 60
62 63 64 63 64 67 68 68 68 68 69 68 68 68 68 69 69 69 69 69 69 69 68 68 68 67 66 66 65 65 59 60
62 62 62 62 63 67 67 68 68 68 68 68 65 64 64 66 66 68 69 69 69 69 68 67 66 65 65 65 65 59 59 59
61 62 62 63 70 64 64 66 65 64 64 64 63 62 62 66 65 67 68 68 68 67 67 66 65 59 59 62 59 60 59 59
64 63 62 63 66 62 62 63 63 63 63 62 62 63 61 62 60 60 59 63 60 61 60 59 59 58 58 58 59 59 57 59
65 64 63 62 63 63 62 62 63 62 63 63 61 60 59 59 59 58 58 57 57 57 57 58 58 59 59 59 59 58 58 58
66 64 63 64 62 62 62 62 64 64 64 63 61 59 59 58 58 58 57 57 57 57 56 57 57 58 58 58 58 58 58 58
65 64 64 64 63 62 62 62 63 63 62 62 62 60 59 59 58 58 57 57 56 55 55 55 54 55 57 57 57 57 57 57
65 63 63 63 64 64 63 62 63 61 62 62 61 60 59 58 57 56 56 55 55 55 54 54 54 55 54 55 55 56 57 56
64 67 62 62 62 61 60 61 60 60 60 59 60 60 59 57 55 54 54 54 53 53 52 52 51 50 50 51 52 53 54 55
61 62 60 62 60 58 58 58 57 57 58 57 58 58 57 54 53 52 53 53 52 51 51 49 49 48 51 51 50 50 51 55
60 61 61 60 58 57 56 59 58 58 56 56 56 56 55 53 53 53 55 51 50 49 48 49 47 46 52 51 48 49 48 47
59 59 58 58 57 56 55 53 54 53 55 55 55 55 57 55 53 51 50 49 48 48 47 46 45 44 43 45 46 47 45 46
57 59 59 58 58 55 55 53 53 52 52 53 54 55 53 53 50 50 50 50 47 46 45 45 44 42 41 40 38 43 43 48
57 57 58 58 57 56 54 53 52 51 51 50 51 51 51 50 49 48 47 46 44 44 43 42 41 41 42 40 36 33 36 41
56 57 57 57 57 56 55 53 51 49 48 48 48 50 50 50 49 47 46 45 44 44 45 41 41 39 41 44 40 41 33 32
54 56 56 56 55 54 52 52 50 49 48 48 49 49 49 49 48 46 45 44 43 42 41 41 40 39 38 39 36 37 36 37
53 54 54 54 53 53 52 50 48 47 47 49 47 46 45 45 46 44 43 43 42 41 41 40 39 38 38 37 36 36 34 35
53 53 53 53 52 51 50 49 48 48 48 45 44 43 42 43 44 43 42 42 42 41 40 39 38 37 37 36 36 36 39 39
52 53 52 52 50 50 49 50 48 47 46 44 42 42 42 43 43 43 42 42 41 40 39 39 38 37 36 36 36 36 38 39

GFSFLT2_sfc_temp_036.txt.gz
Temp
64 66 68 69 69 69 69 69 69 69 70 70 70 69 69 70 70 70 70 70 70 70 69 68 68 68 67 66 65 66 60 61
62 63 64 64 65 68 67 68 68 68 69 68 68 68 68 69 69 69 70 70 69 69 68 68 67 66 65 65 65 64 59 60
61 61 62 62 63 66 67 68 68 68 68 68 65 63 63 64 67 68 69 68 68 68 68 66 66 64 64 64 64 59 59 60
61 60 61 62 68 64 63 65 64 64 64 64 63 62 61 64 65 66 67 67 66 66 65 65 63 59 58 61 58 59 59 59
62 61 61 61 64 62 61 62 62 62 63 62 62 62 61 61 60 59 59 63 59 60 59 58 58 57 57 57 58 58 57 58
63 62 61 61 61 61 61 61 61 61 62 63 61 60 59 59 58 58 57 56 57 56 56 57 57 57 57 57 57 57 57 58
63 62 61 62 61 60 60 60 61 62 62 62 61 59 58 57 57 56 55 56 55 55 55 55 55 56 56 56 56 56 57 57
63 62 62 62 61 61 60 60 61 61 61 61 61 58 57 57 56 55 55 54 54 54 53 53 53 54 55 55 55 55 55 55
62 61 61 61 60 60 60 62 61 60 60 60 59 58 56 55 54 53 53 53 53 53 52 52 52 53 52 53 54 53 54 54
61 63 61 61 59 59 59 59 58 57 58 57 57 56 55 53 52 51 52 52 51 51 51 50 50 49 49 50 50 51 51 52
60 61 61 59 57 56 57 57 57 55 55 55 55 55 54 53 52 51 51 51 52 50 49 48 48 47 49 50 49 48 49 52
60 61 60 56 56 56 56 57 54 54 53 54 55 56 56 54 52 51 51 50 48 47 47 48 46 45 49 50 47 47 47 46
60 59 59 58 55 53 52 51 51 51 52 53 54 53 52 50 49 49 48 47 46 46 45 45 44 43 42 44 44 46 45 46
56 57 57 58 56 54 53 51 50 50 50 50 50 50 50 51 48 47 46 46 45 44 43 42 43 42 40 39 37 41 43 46
56 57 57 56 55 53 51 51 50 49 48 48 48 50 49 48 48 46 45 45 44 43 42 41 39 41 41 39 35 33 36 41
55 56 56 56 54 54 52 50 49 47 46 47 47 48 48 48 47 46 45 44 44 42 44 41 40 38 40 43 40 38 33 32
52 54 55 54 54 53 50 48 47 46 46 46 47 47 47 48 47 46 44 43 42 41 41 40 39 38 37 37 36 36 36 35
52 54 52 53 52 52 51 48 46 46 46 46 45 45 45 45 45 43 43 42 41 41 40 40 39 37 37 37 36 37 38 37
52 52 52 51 51 50 49 48 48 48 47 45 44 43 42 42 42 42 42 42 41 40 39 38 37 36 36 35 35 35 36 37
51 52 51 50 50 49 49 49 47 47 46 44 43 42 42 42 42 42 41 41 40 40 38 38 37 36 35 35 35 36 36 36

GFSFLT2_sfc_temp_039.txt.gz
Temp
74 75 73 69 69 69 69 69 69 70 70 70 70 69 69 70 70 70 70 70 70 70 69 68 68 67 67 66 65 65 76 76
72 73 75 74 74 68 68 68 68 69 69 68 68 68 69 69 68 69 69 69 69 69 68 67 67 66 65 65 64 67 76 77
71 72 72 73 74 72 69 69 68 68 69 68 68 75 74 74 68 68 69 68 68 68 67 66 65 66 65 64 66 75 75 76
70 70 70 70 73 73 72 73 74 74 73 73 74 73 74 74 70 66 67 67 66 66 65 65 69 74 74 70 74 73 75 74
70 69 69 70 71 72 73 74 73 73 71 72 72 73 73 75 75 74 72 67 72 71 72 72 70 71 71 70 71 72 73 74
70 69 69 68 71 72 72 73 72 73 73 71 72 73 72 72 72 70 69 70 69 70 70 68 68 68 68 68 69 71 72 72
71 70 68 69 69 70 70 70 71 72 72 71 72 72 69 69 68 69 69 70 69 69 69 68 68 68 68 68 68 68 68 70
70 69 69 69 69 68 68 69 70 69 68 68 68 69 68 68 67 67 67 68 68 68 67 67 67 67 67 66 66 67 67 66
68 67 68 66 65 64 62 62 65 65 65 65 64 65 66 66 66 66 66 66 65 67 66 67 67 66 66 66 66 65 65 63
68 66 64 64 63 62 59 58 59 60 62 62 62 63 64 64 65 64 65 64 65 65 64 64 64 63 63 64 64 64 63 61
65 65 63 62 59 56 57 59 59 60 60 62 62 61 62 63 63 62 63 64 62 62 62 60 61 61 61 63 63 63 62 63
63 63 60 57 55 57 58 58 60 61 62 62 63 63 62 63 62 61 62 62 61 60 59 60 59 58 59 60 60 62 62 61
60 62 60 60 59 57 58 58 60 61 63 62 62 62 62 61 62 61 61 60 58 57 58 56 58 56 55 57 58 59 57 59
65 64 64 65 67 67 66 64 63 62 61 60 61 61 61 61 60 60 59 60 58 57 55 55 56 55 52 53 51 55 57 57
66 66 66 66 66 64 63 62 61 61 61 61 60 60 60 60 59 60 59 59 57 56 55 52 52 54 52 51 47 46 48 55
66 65 65 64 64 65 64 66 65 61 60 61 62 59 59 59 59 58 57 58 56 55 56 53 52 50 52 53 51 48 40 40
63 64 64 62 63 64 64 60 59 59 60 58 59 59 58 57 57 57 56 57 55 54 53 52 53 50 50 49 48 48 48 41
62 62 61 62 62 61 60 59 58 59 59 59 59 58 58 57 57 56 55 54 53 53 52 51 51 50 50 49 47 43 42 41
61 63 61 61 60 60 60 60 59 59 59 59 58 59 58 58 55 54 54 53 53 52 51 50 50 49 48 47 47 45 45 41
61 61 59 60 60 59 60 59 61 60 58 57 57 56 56 55 54 53 52 51 51 50 50 48 49 47 47 47 46 47 46 45

GFSFLT2_sfc_temp_042.txt.gz
Temp
81 82 76 70 70 70 70 70 70 70 70 70 70 70 70 70 71 71 71 71 70 70 69 68 68 67 67 66 66 67 83 84
83 82 83 81 79 69 68 69 69 69 69 69 68 69 69 69 70 70 70 70 70 69 68 67 67 66 66 65 66 68 84 84
80 82 81 82 82 76 70 69 69 69 70 68 69 82 80 78 69 69 69 68 68 67 67 67 67 68 67 67 67 83 83 84
81 80 79 80 82 80 80 80 81 81 81 79 83 80 82 80 73 67 67 68 67 67 67 69 74 83 82 75 81 80 82 81
80 77 77 78 79 81 82 83 82 81 79 81 80 81 82 84 84 84 82 72 83 80 81 81 76 78 78 77 78 79 80 81
79 77 76 76 81 81 81 83 82 82 81 79 80 80 79 79 82 82 80 82 78 79 79 75 75 75 75 75 75 76 78 78
79 78 77 77 77 79 79 80 82 79 81 78 78 75 76 80 79 81 79 80 79 78 78 77 75 75 75 74 74 74 74 76
79 78 78 78 77 75 75 74 75 79 76 72 69 70 72 77 78 78 78 77 76 75 73 74 74 74 74 74 73 73 73 72
76 76 76 75 74 74 73 72 70 67 71 69 70 73 74 74 75 74 73 73 72 72 71 74 74 74 72 73 73 73 72 70
75 73 71 71 69 65 65 63 66 67 69 68 69 70 71 70 71 69 70 71 70 71 71 70 71 71 70 71 71 72 71 69
72 72 70 68 67 60 60 61 64 67 68 67 66 66 67 67 68 69 70 71 69 69 69 68 67 68 68 69 69 69 70 71
71 71 61 59 60 60 59 64 64 66 67 68 68 68 69 70 70 69 70 69 68 66 64 66 66 65 65 66 67 67 69 68
70 67 63 62 69 66 67 64 68 70 72 70 69 70 69 69 70 69 68 67 65 64 64 63 63 64 61 63 65 67 65 66
71 73 73 74 75 75 75 74 75 74 72 69 69 68 68 69 67 68 66 66 64 63 61 61 63 63 57 57 56 61 65 65
76 76 75 76 76 75 74 72 71 70 69 70 69 68 69 67 67 66 65 65 63 62 61 59 58 61 61 55 51 50 55 60
77 77 76 74 73 74 72 75 74 72 72 71 71 68 67 67 66 65 63 64 62 62 63 59 58 56 59 60 57 54 43 43
75 75 74 73 73 73 73 71 71 71 70 67 68 69 67 66 65 64 63 63 62 60 59 58 59 56 54 51 51 51 51 45
72 73 72 72 72 71 70 68 67 69 68 67 69 68 67 66 65 64 63 62 60 60 59 57 56 54 53 50 48 45 46 44
70 72 71 71 70 69 69 67 67 66 66 67 64 65 65 64 63 62 62 61 60 59 57 56 55 53 52 51 49 47 48 45
71 71 69 69 69 67 66 67 70 68 66 64 64 63 62 61 60 60 60 60 59 57 56 55 54 53 51 51 49 50 50 48

GFSFLT2_sfc_temp_048.txt.gz
Temp
74 75 71 70 70 70 70 70 70 70 70 70 70 70 70 70 70 71 71 71 70 70 69 69 69 69 69 69 68 68 69 73
72 74 73 71 71 69 69 69 69 69 69 69 69 69 69 70 70 70 70 70 70 70 69 69 69 69 69 70 69 68 70 72
76 76 74 72 71 70 69 69 69 69 69 69 67 71 70 70 69 69 70 69 69 69 69 69 69 69 68 70 70 70 70 70
76 75 73 73 77 71 70 71 72 72 72 69 71 72 73 75 70 69 69 69 69 69 69 69 69 70 68 71 69 69 69 69
76 73 74 74 74 75 75 74 74 73 73 73 74 74 71 69 68 67 67 68 69 68 70 72 70 68 68 67 68 67 66 68
75 74 74 73 75 74 74 76 74 73 73 74 70 68 69 70 69 69 70 69 70 69 67 68 68 69 69 67 67 66 65 67
74 74 73 73 74 73 71 70 69 69 69 69 67 68 68 68 69 70 69 69 68 66 66 66 65 66 67 67 67 66 66 65
74 74 74 74 72 72 70 69 69 68 68 68 69 68 67 67 65 67 67 66 64 63 63 63 63 64 65 65 65 65 65 64
74 74 74 72 71 69 67 68 68 67 66 66 66 65 63 63 62 63 63 64 63 63 62 61 60 64 62 62 62 62 63 63
75 76 71 69 68 68 67 65 63 64 65 65 65 66 65 64 62 61 62 62 61 60 59 58 57 58 57 58 58 60 61 61
73 72 68 65 63 62 60 61 61 61 63 63 63 64 65 62 61 61 61 61 59 59 57 56 55 55 58 57 56 56 58 64
72 67 65 64 63 63 64 64 63 64 63 63 64 65 66 64 62 61 61 60 58 56 55 55 54 53 61 59 54 55 56 55
68 65 66 65 67 66 64 63 63 64 65 66 65 66 66 63 62 61 60 58 57 57 54 53 51 53 51 52 51 54 54 55
69 69 67 69 70 70 68 66 66 67 66 65 66 65 65 64 61 60 59 57 56 55 53 51 51 51 48 49 45 48 51 54
68 70 70 71 72 71 70 68 66 65 64 63 64 65 65 64 61 59 57 56 54 53 53 51 48 49 51 47 42 38 45 48
71 71 72 74 72 70 67 66 64 65 64 66 64 65 64 64 62 60 57 56 54 53 56 51 49 47 48 53 47 45 40 38
71 73 74 72 71 70 67 66 63 66 64 62 63 62 63 63 61 59 57 55 54 53 51 50 49 47 45 44 44 43 42 39
71 73 73 71 71 70 67 67 65 63 62 60 61 61 61 61 62 57 56 54 53 51 51 50 48 47 46 44 42 40 39 40
71 72 71 70 69 68 67 65 64 63 61 60 59 59 57 57 57 55 54 53 52 51 50 48 48 46 44 43 45 44 45 42
70 72 70 70 68 67 65 65 62 62 61 60 58 57 56 57 55 54 54 53 51 50 48 47 48 45 44 44 44 43 44 43

GFSFLT2_sfc_temp_051.txt.gz
Temp
69 70 71 70 69 69 69 69 69 69 70 69 69 69 69 70 70 70 70 70 70 70 69 69 69 69 69 67 67 69 65 66
69 69 70 69 69 68 68 68 68 68 69 68 68 69 69 69 69 70 70 70 70 70 69 69 69 69 68 67 67 68 65 64
68 68 69 68 68 69 68 69 68 68 68 68 66 67 67 68 68 69 70 70 69 69 69 68 68 68 67 67 67 65 66 63
66 70 68 69 72 67 66 69 67 67 67 66 66 66 66 70 68 68 69 69 69 69 68 69 68 65 65 67 64 65 64 63
71 70 69 70 69 67 66 65 65 66 66 66 66 68 66 66 64 64 65 67 65 68 66 66 65 64 64 63 64 64 60 63
70 69 69 69 70 68 68 68 68 66 66 67 66 65 64 64 63 65 67 66 63 62 60 62 62 64 64 62 63 62 61 61
68 69 69 68 67 67 67 65 65 65 65 66 65 64 63 63 61 61 60 61 60 59 60 60 60 62 62 62 62 61 61 60
67 68 67 68 67 66 65 64 64 64 63 64 64 63 62 59 59 59 60 60 59 59 58 57 57 58 59 60 59 59 59 59
68 66 67 66 64 64 63 63 63 64 63 62 62 62 60 58 57 57 59 59 58 57 55 55 55 57 56 57 57 57 57 58
69 71 65 63 61 60 60 59 60 59 59 59 61 61 60 58 57 57 57 56 55 54 53 53 52 51 51 52 52 54 55 56
66 65 63 60 59 58 58 58 57 57 58 58 59 60 60 57 56 56 56 55 53 55 52 51 49 50 53 52 50 51 52 58
65 64 60 59 58 58 57 57 56 57 56 57 59 60 60 57 56 56 55 54 53 52 51 51 50 49 56 53 50 50 50 49
63 61 60 60 58 57 56 54 55 56 57 60 60 60 60 57 55 55 54 53 51 52 50 49 48 47 45 47 46 48 49 48
62 62 60 61 61 60 59 58 57 58 58 58 59 59 59 59 55 54 53 52 51 50 49 46 46 47 44 42 39 44 45 50
63 63 62 63 64 62 59 58 57 56 56 56 58 60 60 57 56 54 53 51 50 48 48 47 44 45 46 42 37 35 39 43
64 65 63 64 65 62 59 56 57 56 56 56 57 59 59 58 57 54 53 51 50 48 51 46 45 42 43 49 42 40 35 36
61 64 65 65 66 62 60 57 57 57 57 59 57 58 58 59 56 53 51 50 49 48 46 46 44 43 42 41 40 39 38 35
61 63 64 64 62 61 60 58 58 59 58 57 56 56 54 54 55 51 50 49 48 47 46 45 44 43 42 41 40 38 39 38
62 65 62 63 62 60 59 58 57 57 54 53 53 53 53 52 51 50 49 48 48 47 45 44 43 42 41 40 41 41 41 42
67 62 62 62 61 59 58 58 56 54 55 55 54 53 53 50 50 49 48 48 47 46 44 43 43 40 41 40 41 42 41 41

GFSFLT2_sfc_temp_054.txt.gz
Temp
68 71 71 69 69 69 69 69 69 70 70 70 70 69 70 70 70 70 70 70 70 70 69 69 69 69 68 67 67 67 62 63
67 68 69 68 68 68 68 68 68 69 69 68 68 68 69 69 69 70 70 70 70 70 69 69 69 68 67 67 66 66 61 61
67 67 67 67 67 68 68 68 68 68 68 68 66 65 66 67 68 69 70 70 70 69 69 69 68 67 67 66 66 63 61 60
66 66 66 67 71 66 65 68 66 65 65 65 65 64 64 67 67 69 69 69 68 69 68 67 66 63 62 64 61 62 61 60
65 65 66 65 66 63 63 63 64 64 65 64 64 65 64 63 62 62 63 66 64 65 63 62 62 61 61 60 60 59 57 58
67 67 66 65 65 64 64 64 63 63 64 65 63 62 62 62 61 63 62 61 60 59 58 60 59 60 60 59 58 57 56 56
67 68 65 65 64 63 63 63 63 63 63 64 63 62 60 60 58 59 58 59 58 57 57 57 57 58 57 57 57 56 57 55
67 67 65 65 63 63 62 63 63 62 62 62 63 61 58 57 56 57 58 58 56 55 54 53 53 54 55 55 55 54 54 54
67 64 65 65 64 62 61 62 62 60 60 61 61 60 58 56 55 55 56 56 54 54 53 52 52 54 53 53 53 53 53 53
66 68 64 62 60 60 60 60 59 58 58 58 59 59 58 56 56 54 54 53 52 51 51 50 49 48 48 49 49 51 52 52
63 63 61 59 58 57 57 57 56 56 56 57 58 58 58 55 54 53 53 52 51 53 49 49 47 48 51 48 49 49 48 53
64 62 59 57 57 56 56 55 54 55 55 56 57 57 57 55 53 53 53 51 50 49 49 49 47 46 53 51 47 46 46 46
62 60 58 59 57 57 55 53 54 54 55 57 57 57 57 54 53 52 51 51 49 50 48 47 46 45 43 43 43 45 45 45
61 61 59 60 59 57 56 55 54 54 55 56 57 56 55 55 53 52 51 49 49 48 47 45 44 44 42 39 38 40 43 48
62 61 60 60 60 59 56 55 54 53 53 53 55 57 57 55 53 51 51 49 48 46 45 45 42 42 43 42 36 33 36 40
62 61 61 60 60 59 56 55 55 53 53 53 55 57 56 55 54 52 50 49 47 47 47 44 42 41 41 46 41 39 34 32
61 62 62 61 62 60 58 54 54 53 53 54 54 54 55 55 52 50 49 47 46 46 44 44 42 41 40 39 38 37 36 33
61 62 61 60 61 59 58 56 54 53 53 53 53 53 51 53 51 49 48 47 46 45 44 43 41 40 40 38 38 37 35 35
61 60 60 60 59 59 57 56 55 54 54 52 51 51 51 51 50 50 49 48 47 45 43 42 41 39 38 38 39 39 40 38
62 61 59 58 58 56 55 55 53 53 55 54 53 52 50 51 49 50 49 49 47 43 42 40 40 38 38 38 38 39 39 39

GFSFLT2_sfc_temp_057.txt.gz
Temp
67 68 70 71 68 69 69 69 69 70 70 70 70 69 70 70 70 70 70 70 70 70 69 69 69 68 67 66 66 66 60 61
65 66 67 66 67 68 68 68 68 68 69 68 68 68 69 69 69 70 70 70 70 69 69 68 68 67 66 66 65 64 59 59
64 66 66 65 66 68 68 68 68 68 68 67 65 63 64 66 68 69 69 69 69 69 68 66 66 66 66 65 64 59 59 58
64 65 65 66 70 65 64 67 65 64 64 64 62 62 64 66 67 68 68 68 68 67 66 65 64 61 60 62 59 58 58 57
64 65 65 65 65 63 63 63 62 63 64 63 63 64 63 62 61 61 61 64 62 62 61 60 60 59 58 57 57 56 53 55
65 65 65 63 63 62 62 63 62 62 63 63 61 60 60 60 59 60 59 58 58 57 56 57 57 57 57 55 55 53 52 53
65 64 62 63 61 60 60 61 61 62 63 63 62 60 59 58 57 57 56 57 56 55 58 55 54 55 53 54 53 52 53 52
65 65 62 62 61 62 61 62 62 62 62 62 61 59 57 56 55 56 55 55 54 55 53 52 51 52 51 52 52 51 51 51
64 63 64 63 62 62 60 61 61 59 59 60 60 58 56 55 53 53 54 53 53 52 51 50 50 52 50 50 50 50 50 50
65 67 63 61 60 60 60 59 59 58 58 58 58 58 57 55 55 53 53 52 51 49 49 48 47 47 46 47 48 48 49 49
63 62 60 59 58 57 57 57 57 56 56 56 57 57 56 54 53 51 51 50 49 51 48 48 46 46 49 48 46 45 47 51
61 60 58 57 56 56 55 54 54 55 55 55 56 56 56 53 52 51 51 49 49 48 47 46 46 45 51 49 43 44 44 44
59 58 56 57 56 54 53 52 52 53 54 56 56 56 55 52 51 50 50 49 48 49 46 46 44 42 42 42 42 43 42 43
58 59 57 58 58 55 55 53 53 53 54 55 55 55 54 53 51 50 50 48 48 47 46 43 42 42 41 37 37 39 41 44
60 60 59 59 58 56 53 53 53 52 52 52 53 54 54 53 51 50 49 48 46 45 44 44 42 41 42 40 35 32 35 39
62 60 59 59 59 56 54 53 51 51 52 52 53 54 54 53 52 49 48 47 46 45 46 44 42 41 40 44 40 38 34 32
60 59 59 59 59 58 55 52 52 52 51 52 51 52 53 52 50 48 47 46 45 44 43 42 42 42 39 37 37 35 35 33
58 59 59 60 59 57 55 53 53 52 50 50 50 49 49 49 50 48 49 46 45 44 43 43 40 38 38 37 37 36 35 33
59 59 60 59 59 57 56 54 54 53 52 52 49 47 48 49 50 48 47 47 46 47 44 42 40 38 37 37 38 37 38 36
59 60 60 58 57 56 55 54 53 51 51 51 50 51 49 49 47 47 49 49 48 45 42 40 39 37 37 37 37 38 37 37

GFSFLT2_sfc_temp_063.txt.gz
Temp
68 68 68 69 69 69 69 70 70 70 70 70 69 69 70 71 71 71 71 71 70 70 69 68 68 68 67 65 65 66 75 75
66 65 65 65 69 68 68 68 68 68 68 68 68 68 69 69 69 70 70 70 69 69 68 67 67 66 65 64 64 66 74 75
65 64 64 65 69 68 68 68 68 68 68 67 66 71 72 74 69 69 69 68 68 67 66 65 65 64 64 64 66 72 73 74
63 63 64 64 67 66 68 71 72 71 71 69 70 70 71 72 70 67 67 67 67 66 65 65 68 71 70 67 70 69 71 71
60 62 64 64 65 67 69 70 70 70 69 68 69 69 69 69 70 70 70 67 69 66 68 69 67 69 68 67 68 68 70 71
61 62 64 66 68 68 68 69 68 68 68 68 69 68 67 68 68 69 67 67 66 66 66 65 65 65 65 64 65 67 69 69
62 65 65 67 67 68 67 67 68 67 67 69 68 68 67 67 64 65 65 67 66 66 66 65 65 64 64 64 64 64 64 68
66 68 69 68 68 68 68 67 69 68 69 70 69 69 65 62 63 64 64 67 67 66 65 63 65 64 62 62 62 64 64 64
67 68 69 68 68 68 68 69 70 70 69 67 67 65 63 62 61 63 65 65 63 58 63 64 64 64 62 62 63 62 63 63
70 70 67 67 67 68 69 68 70 69 67 66 66 64 63 63 64 63 64 64 63 63 64 63 63 64 63 62 62 62 62 62
69 69 68 67 67 66 66 67 67 66 65 65 64 63 63 64 64 62 63 64 64 64 62 62 62 63 64 62 61 61 61 63
69 69 67 66 65 65 66 66 65 65 65 65 64 65 64 64 63 62 64 63 62 62 61 60 61 61 62 60 60 60 60 61
68 66 66 65 63 61 61 61 63 63 64 64 64 65 64 60 64 62 63 63 61 60 59 59 59 60 59 59 58 57 56 59
67 67 65 66 68 66 66 65 65 64 64 63 64 64 62 60 62 61 62 60 59 59 59 58 59 58 57 56 55 55 57 58
67 67 66 67 68 66 63 63 62 60 60 62 62 61 60 62 61 61 60 61 60 59 59 57 56 56 55 55 51 51 52 57
67 67 66 66 66 66 64 65 63 62 62 61 59 59 61 62 61 60 59 60 59 58 58 58 56 54 55 55 54 54 50 48
66 66 66 65 64 65 64 63 62 60 61 58 59 59 62 61 60 59 58 59 57 57 55 51 50 49 54 53 52 53 51 48
65 65 65 64 64 63 63 62 59 57 59 59 60 61 60 59 59 59 58 56 56 51 54 49 49 49 51 52 52 50 50 48
65 65 64 63 61 62 62 62 59 59 60 58 58 59 58 56 57 56 55 55 53 50 53 52 46 48 51 51 51 51 51 49
63 64 65 63 60 60 60 60 60 60 57 59 59 58 56 56 56 55 54 53 49 48 51 48 50 51 50 50 52 51 51 50

GFSFLT2_sfc_temp_066.txt.gz
Temp
70 72 72 69 69 69 69 70 70 71 70 70 70 70 70 70 71 71 71 71 70 70 69 69 68 68 67 66 66 68 82 82
65 64 65 64 66 68 68 68 68 69 69 68 68 68 69 69 69 70 70 70 70 69 68 67 67 66 65 65 66 69 82 82
63 63 62 64 68 68 68 68 68 68 69 68 70 77 76 75 70 69 69 68 68 67 66 65 65 64 65 66 69 81 81 82
63 63 64 64 66 66 70 71 74 75 75 77 80 78 80 78 70 67 67 67 67 66 66 67 71 79 77 71 78 78 80 80
62 63 66 64 63 64 66 70 72 75 77 79 77 77 75 77 74 75 74 71 76 75 75 78 75 76 76 75 76 77 79 80
62 63 62 63 64 65 68 71 73 73 78 77 75 76 74 76 77 77 75 77 75 75 74 72 71 72 72 72 73 76 77 78
59 62 62 63 64 68 73 73 75 76 76 76 77 75 75 77 76 77 77 76 75 73 73 73 72 72 73 72 72 71 72 76
59 61 63 65 69 73 74 76 77 77 76 77 75 77 75 76 74 74 74 75 75 74 74 74 73 72 71 70 70 72 71 72
67 68 69 73 74 76 77 78 78 78 78 76 76 75 72 73 71 70 74 75 72 71 72 73 73 73 70 71 72 70 71 70
73 75 73 73 76 76 78 77 76 76 75 74 74 72 71 67 70 72 73 72 72 71 72 71 72 73 71 74 73 71 70 70
75 75 74 72 72 74 73 74 75 78 75 75 73 72 70 70 72 71 71 71 71 71 71 71 70 72 73 73 72 71 69 73
76 76 75 74 74 74 76 77 78 77 74 71 70 70 70 72 73 71 72 71 70 71 69 70 71 71 72 70 69 69 70 69
76 75 75 74 74 74 74 73 75 75 71 73 72 72 71 71 73 70 72 71 70 68 68 66 67 69 68 69 67 65 64 66
76 77 77 76 78 76 76 75 77 76 71 72 71 70 71 71 71 70 70 70 67 66 66 66 67 67 64 62 61 63 64 64
77 78 78 76 77 77 77 77 76 73 68 68 70 68 72 70 68 71 69 69 67 66 67 65 64 63 62 59 50 55 61 67
78 78 78 76 76 76 73 74 73 74 70 71 67 69 68 68 69 69 68 70 68 67 67 66 64 59 61 56 56 57 56 56
76 78 77 77 76 76 74 73 76 75 71 70 68 66 66 67 69 68 68 68 67 66 64 62 57 61 57 54 55 60 59 55
76 76 77 76 74 73 73 73 72 68 68 66 61 63 64 66 69 68 68 67 65 64 62 59 55 57 56 56 58 57 57 56
76 76 76 76 73 73 72 72 71 68 67 66 64 61 63 65 66 66 66 66 64 61 59 52 53 53 53 59 60 58 58 57
75 75 74 74 70 71 71 68 67 66 67 66 61 59 64 67 66 66 65 64 61 52 58 58 50 50 56 57 59 59 59 57

GFSFLT2_sfc_temp_069.txt.gz
Temp
68 70 71 69 69 69 69 70 70 71 71 70 70 70 70 70 70 71 71 71 70 70 69 68 68 68 67 67 68 70 83 83
66 64 66 65 68 68 68 68 68 69 69 68 68 69 69 70 70 70 70 70 69 69 68 67 67 66 66 67 68 69 83 84
62 61 62 65 65 69 68 68 68 68 68 68 70 77 77 77 69 69 69 68 68 68 67 66 65 65 67 68 67 81 82 82
61 61 60 62 64 66 69 72 73 73 74 74 76 77 80 77 70 67 67 67 67 67 67 66 70 79 77 71 79 79 79 79
61 60 60 61 63 65 65 67 72 72 74 77 76 77 76 76 72 73 72 70 75 73 72 78 77 78 76 76 77 78 78 80
61 61 61 61 64 64 65 66 70 73 74 76 75 76 76 75 76 74 75 77 75 77 76 74 74 74 73 73 74 76 77 78
60 61 61 61 62 62 63 69 73 73 75 75 75 76 76 77 77 76 77 78 77 76 74 74 73 74 75 74 74 73 74 77
60 60 61 61 61 64 67 72 74 74 74 75 76 77 76 78 77 77 77 77 77 76 75 74 75 74 72 73 73 74 73 74
60 60 61 63 65 68 72 74 77 77 78 77 76 78 76 77 76 76 76 77 75 76 74 75 75 76 72 73 73 72 72 72
61 65 65 66 68 72 75 79 78 79 80 78 78 77 76 75 74 72 74 75 74 74 74 74 73 73 72 74 74 73 71 71
67 69 69 69 72 77 77 77 78 80 79 76 74 73 74 73 73 74 74 74 73 73 73 73 72 73 73 72 72 72 70 74
75 73 72 72 72 75 77 77 78 79 78 77 75 74 72 71 75 74 73 73 72 73 71 72 72 72 73 72 70 70 71 70
76 75 74 74 75 75 76 75 78 79 78 75 73 74 73 73 75 73 72 73 72 70 70 68 68 69 68 69 69 68 67 68
79 79 78 78 79 79 79 78 79 80 76 72 73 74 74 73 74 73 72 73 70 69 68 68 69 69 65 65 62 65 66 66
79 80 81 80 81 81 79 79 79 78 75 70 72 73 74 74 74 73 72 72 70 68 68 68 66 66 65 63 58 56 61 68
80 81 82 82 79 79 76 76 75 77 76 73 71 73 72 72 73 72 71 71 69 68 70 68 67 64 64 64 62 60 56 55
79 81 81 82 78 79 77 75 78 79 76 71 70 71 70 69 70 71 70 69 69 69 68 66 65 62 59 59 58 60 60 56
79 80 81 81 80 77 77 75 76 77 73 70 69 69 68 64 66 68 68 66 68 68 67 65 60 60 59 56 58 58 58 58
79 79 79 80 79 78 76 76 76 75 72 71 67 66 64 63 64 64 65 65 68 67 64 60 55 56 56 54 58 60 60 59
79 79 78 80 78 77 77 77 77 74 72 71 67 66 66 66 62 60 61 62 66 64 59 54 53 54 54 53 56 60 61 59

GFSFLT2_sfc_temp_072.txt.gz
Temp
64 67 68 69 69 69 69 70 70 71 71 70 70 70 70 71 71 71 71 70 70 70 69 68 68 68 68 68 67 68 67 73
66 66 65 66 67 67 68 68 68 68 68 68 68 68 69 69 69 70 70 70 69 69 68 67 67 67 67 68 68 67 71 70
66 64 65 65 66 68 68 68 68 68 68 68 68 70 69 71 68 69 69 68 68 68 67 66 66 67 67 68 68 69 70 68
62 61 62 63 65 64 66 69 70 70 70 70 71 69 70 69 67 67 67 67 67 67 67 66 67 66 65 67 67 68 68 66
60 60 60 59 60 61 62 64 67 68 69 70 69 69 68 67 65 65 64 66 67 67 65 66 68 67 66 64 66 67 65 65
58 60 60 60 61 62 63 64 67 67 68 69 68 67 68 67 66 66 65 67 65 65 65 66 65 66 65 65 65 64 63 62
59 60 60 61 60 61 61 62 64 66 67 69 69 68 67 67 67 67 67 67 66 66 65 65 65 65 65 66 65 64 65 63
59 59 59 59 58 60 61 63 64 65 66 67 70 69 67 68 67 67 67 68 67 66 64 64 64 64 64 65 64 64 64 63
58 58 58 58 59 59 61 64 67 66 67 69 70 70 69 68 67 67 67 67 66 66 65 65 63 65 63 64 63 64 63 64
59 61 59 59 61 62 64 69 69 70 69 69 69 69 69 68 67 66 67 66 65 64 63 62 61 61 60 60 62 63 63 63
59 60 60 60 62 65 67 68 69 71 70 70 69 69 69 67 65 65 66 65 63 64 62 61 60 60 62 60 60 60 61 67
61 62 63 63 63 64 66 70 72 72 70 70 69 69 68 67 67 65 65 64 62 62 61 62 60 60 69 63 58 59 59 58
63 64 64 64 64 64 67 66 69 68 70 71 69 69 69 65 67 66 64 63 62 62 61 59 58 59 56 56 56 57 56 57
65 66 68 68 68 70 71 70 71 72 72 69 69 68 69 67 66 65 64 63 62 60 60 57 57 58 54 54 50 53 56 57
71 71 71 71 72 74 72 71 69 70 68 67 67 69 69 67 66 65 64 64 61 59 59 58 55 55 56 52 47 46 49 54
73 75 75 74 74 74 70 70 68 69 68 69 67 68 69 70 67 65 64 63 62 60 63 58 57 53 53 57 55 53 48 44
73 75 76 75 75 72 71 68 69 70 71 67 66 66 67 69 65 64 63 63 62 61 60 60 57 53 52 51 52 49 52 45
74 75 76 74 74 72 70 68 68 69 66 65 66 65 64 64 64 61 61 62 60 59 60 59 54 52 51 51 51 49 50 46
74 74 74 75 73 71 71 70 69 68 67 66 64 62 61 62 61 60 61 60 59 58 57 55 51 50 49 50 52 51 53 50
74 74 74 75 74 72 72 72 71 70 69 67 66 63 61 60 60 60 60 59 57 56 51 51 50 49 48 49 48 49 51 50

GFSFLT2_sfc_temp_075.txt.gz
Temp
65 64 66 69 70 69 69 70 70 70 70 70 71 71 71 71 71 71 71 70 70 70 69 68 69 68 68 67 67 68 66 66
65 66 65 66 67 67 68 68 68 68 68 68 68 68 69 70 70 70 70 70 70 69 68 68 68 68 68 67 67 67 65 64
64 64 64 64 65 67 67 68 68 68 68 68 67 68 69 69 68 69 69 69 68 68 68 68 67 68 68 68 66 65 63 62
63 63 64 64 64 65 65 68 68 68 68 67 67 65 67 68 67 68 68 68 68 68 67 67 67 64 63 65 62 63 63 61
61 62 63 63 62 62 63 63 67 67 67 67 67 66 65 64 64 63 62 65 63 64 63 63 64 62 61 61 62 60 57 58
59 59 60 61 61 61 62 63 65 65 68 67 66 65 64 64 63 62 61 62 61 60 60 61 61 63 62 61 61 58 56 56
58 59 58 59 59 61 62 62 64 65 65 66 66 65 64 63 62 63 62 62 60 60 60 61 61 61 61 62 61 59 58 57
58 59 59 60 60 61 62 65 63 63 64 65 65 65 64 63 63 63 62 63 61 60 60 61 59 60 60 61 60 59 57 56
57 57 59 58 59 60 59 65 64 64 64 66 67 65 64 63 62 62 63 63 62 61 61 59 58 60 60 60 60 60 58 58
58 60 58 58 60 60 63 66 65 64 65 65 66 67 66 64 63 63 63 62 61 60 60 58 57 57 56 56 57 58 60 59
57 58 58 59 61 63 64 64 62 63 63 64 65 66 65 63 62 62 62 61 61 61 59 58 56 56 57 56 55 56 58 63
58 58 58 57 56 57 58 60 63 64 64 65 64 64 65 62 61 61 61 61 60 59 58 57 57 57 64 59 54 55 55 54
57 58 57 58 56 57 59 59 63 65 65 66 65 66 65 62 61 61 60 60 59 59 58 57 55 55 53 52 52 53 54 53
58 59 59 60 61 62 61 62 65 66 63 64 66 64 64 62 61 60 60 59 59 58 57 54 54 54 51 49 47 49 51 53
59 61 62 62 64 64 64 61 62 61 60 61 63 65 64 64 61 60 60 60 58 56 56 55 52 51 53 50 44 43 45 50
61 63 64 65 65 65 64 64 63 65 63 66 63 64 65 65 64 61 60 60 57 58 59 56 54 53 51 53 49 48 45 44
63 64 65 67 66 67 65 64 65 62 62 64 64 64 64 65 66 62 59 59 58 57 57 56 56 53 51 50 49 47 46 44
66 67 68 68 67 67 67 61 64 63 59 61 63 63 64 64 63 61 60 59 58 57 56 57 53 52 50 50 49 46 46 47
67 68 68 69 70 69 66 63 63 65 62 62 61 59 59 60 59 57 57 57 57 57 56 53 49 48 47 47 49 50 49 50
68 69 69 70 68 69 64 67 67 64 62 63 62 61 61 58 57 56 57 57 57 55 51 49 48 47 47 46 47 47 48 48

GFSFLT2_sfc_temp_081.txt.gz
Temp
64 65 65 65 68 70 70 70 71 71 72 71 71 71 71 71 71 71 71 71 70 70 69 69 69 68 67 66 65 65 59 62
63 64 63 63 64 67 67 69 69 70 70 70 69 69 69 69 69 70 70 70 70 70 68 67 68 67 66 65 65 64 57 58
64 62 62 62 63 64 66 69 68 68 69 68 67 68 67 67 68 69 69 69 69 69 67 66 66 66 66 65 64 58 58 58
62 62 61 61 62 65 65 67 68 69 69 69 67 66 66 67 67 68 68 68 68 67 66 65 64 61 63 63 58 58 58 58
62 61 61 61 60 61 62 62 63 66 67 67 65 65 66 66 65 64 63 64 62 61 61 60 58 57 56 55 56 56 55 57
62 62 61 60 60 59 61 60 62 63 64 64 63 62 59 61 61 59 61 59 59 58 56 56 56 56 56 55 55 54 53 55
61 61 60 60 60 60 61 61 62 62 63 63 62 63 61 60 58 58 61 58 59 57 57 56 56 55 55 55 54 53 54 54
59 61 61 61 61 62 62 64 64 63 62 62 62 62 61 61 57 57 58 58 59 57 56 56 55 55 54 55 54 53 53 53
58 59 61 61 61 63 63 65 65 64 64 62 62 61 59 58 56 56 56 56 57 56 56 54 54 56 54 54 54 53 53 53
59 60 59 59 60 62 63 66 65 64 64 63 62 62 61 60 58 57 56 57 57 56 54 54 53 54 52 52 53 53 53 54
58 58 57 58 58 60 61 62 64 65 64 64 62 61 61 61 58 57 58 57 56 57 54 55 53 53 54 51 51 52 53 56
58 57 56 57 56 58 60 60 61 62 62 65 62 62 61 59 58 57 57 56 55 55 55 54 53 53 59 55 50 50 51 51
57 56 57 57 56 55 58 61 60 60 61 62 62 61 61 59 58 57 57 57 57 55 54 54 52 51 51 49 49 49 49 48
57 58 58 58 58 61 62 62 60 61 60 61 59 60 60 59 58 58 57 56 54 54 55 52 52 51 50 47 46 48 47 49
56 58 58 60 61 60 59 59 59 59 57 55 57 59 60 60 58 57 57 56 56 55 54 54 51 49 51 51 44 45 47 49
54 56 58 59 59 56 55 60 60 58 56 57 57 59 59 60 60 58 57 57 54 55 55 52 54 52 52 53 51 48 47 47
54 55 56 58 57 57 56 56 56 56 56 56 56 57 59 60 60 59 57 57 57 55 53 53 53 53 51 48 48 48 47 47
53 54 56 57 57 57 56 56 58 57 55 56 59 58 58 59 60 60 60 58 57 56 56 53 53 53 51 49 48 47 46 45
54 55 56 58 58 58 58 57 57 58 59 58 58 58 59 60 59 59 60 60 58 56 55 54 53 52 49 48 49 49 49 47
56 56 56 58 58 58 58 60 60 60 60 60 60 60 60 60 60 62 61 59 57 56 54 52 50 50 49 49 50 49 49 48

GFSFLT2_sfc_temp_084.txt.gz
Temp
64 64 65 68 67 71 70 71 71 72 72 72 71 71 71 72 71 71 71 70 70 69 69 68 68 67 67 65 65 64 59 60
62 63 63 64 64 66 67 69 70 70 71 70 69 69 69 70 70 70 70 70 69 69 68 68 67 66 66 65 64 63 58 59
62 62 62 62 63 64 67 69 69 69 70 69 67 67 66 66 68 69 70 69 68 68 68 67 66 66 65 64 63 58 58 58
62 61 61 61 63 63 65 65 67 68 69 68 67 66 64 65 67 68 69 68 67 67 67 66 65 62 63 62 57 57 58 58
61 60 61 60 61 61 63 64 65 67 67 67 66 64 63 62 64 65 64 65 63 62 61 60 59 58 56 56 56 56 56 58
61 61 60 60 61 63 63 63 64 65 65 65 65 63 60 59 59 59 58 58 58 57 57 56 56 57 56 55 55 55 55 56
60 60 59 59 60 61 61 63 63 63 64 64 64 63 61 60 58 58 58 58 59 56 56 56 56 55 55 55 54 54 55 56
60 59 59 59 60 60 61 61 62 62 62 62 63 63 61 61 57 58 58 59 57 58 58 57 56 55 54 54 54 54 54 55
60 59 59 60 60 60 61 62 62 61 62 61 62 62 61 60 58 57 59 58 56 56 55 56 55 56 54 54 54 54 54 54
59 61 60 59 61 62 64 63 62 62 62 61 62 61 60 59 59 58 57 57 56 55 55 53 53 53 52 52 54 54 54 54
58 58 58 57 58 59 60 62 62 62 62 61 61 61 60 60 59 58 58 57 56 56 54 54 53 52 54 52 52 52 54 56
57 57 57 57 57 58 58 59 60 62 61 62 61 61 60 58 58 58 58 56 55 54 54 53 53 53 58 54 51 51 51 51
57 56 56 57 57 56 58 60 58 59 61 62 60 61 60 58 58 58 57 56 55 54 54 53 52 51 51 50 50 50 50 49
57 58 57 58 58 57 59 62 59 59 59 60 61 61 60 59 59 57 56 55 54 54 54 52 53 51 50 48 48 50 49 50
57 58 59 60 59 58 58 59 59 58 57 57 59 60 60 61 58 58 56 56 55 55 53 53 51 49 50 50 45 45 47 48
58 58 59 60 61 60 59 61 60 63 59 59 59 60 59 59 59 57 56 56 54 55 54 52 52 49 49 51 50 51 48 47
56 57 57 58 60 60 55 61 62 55 55 56 55 56 58 59 58 57 56 56 56 54 52 51 51 50 50 47 49 48 48 47
56 54 54 57 57 56 54 53 54 54 53 53 54 54 55 57 58 58 58 57 56 55 55 54 54 54 51 49 49 47 47 45
56 54 54 55 55 55 55 54 54 57 58 57 56 54 54 56 57 57 58 58 58 58 55 54 53 52 52 52 52 51 50 49
54 53 54 55 55 55 55 56 56 57 58 59 56 57 56 56 57 59 59 59 59 57 57 56 55 53 53 51 51 52 50 47

GFSFLT2_sfc_temp_087.txt.gz
Temp
69 67 68 67 67 70 70 71 71 72 72 72 72 71 71 72 72 71 71 71 70 70 69 68 68 67 66 65 64 67 74 75
69 68 68 67 65 66 66 69 70 71 71 70 70 70 70 70 70 70 70 70 70 69 68 68 67 66 65 65 64 66 74 74
66 66 67 67 65 66 67 68 68 69 70 69 69 75 74 73 71 69 69 69 69 68 68 67 66 65 65 64 66 73 73 74
65 64 64 63 66 65 66 67 68 70 70 73 74 73 74 74 71 68 68 69 68 68 67 66 68 71 70 66 72 71 73 73
64 64 64 62 62 63 65 65 66 67 68 73 70 72 71 71 72 73 72 70 73 71 69 73 70 71 71 70 70 71 72 74
63 62 62 62 61 62 63 64 65 65 66 68 71 70 69 68 71 71 70 72 71 71 70 69 68 69 69 68 69 71 72 73
60 61 62 62 62 62 63 64 65 64 65 68 69 69 67 69 68 70 70 69 69 69 68 69 68 68 68 68 68 69 69 72
60 59 61 60 62 63 63 64 64 64 64 67 67 68 66 66 67 68 68 70 70 69 69 69 69 68 67 67 68 69 70 69
59 59 59 60 59 61 62 63 64 63 63 66 65 65 64 64 65 67 68 68 65 64 66 67 68 68 66 66 66 66 68 67
60 60 59 61 60 60 61 62 62 62 63 64 65 64 64 64 64 66 67 66 66 67 66 67 66 66 64 65 65 65 66 67
59 59 59 60 60 62 61 62 62 61 62 64 63 63 63 64 63 64 65 66 66 67 64 65 64 65 64 65 65 65 64 66
58 59 59 58 59 59 60 60 61 61 60 64 65 66 65 64 66 64 64 65 64 64 64 64 64 65 65 62 62 64 65 65
57 57 58 58 59 58 59 57 59 60 62 62 64 67 65 66 66 65 65 64 65 64 62 62 62 63 62 62 63 63 62 64
58 57 58 59 60 59 61 59 61 61 61 61 61 62 64 65 66 66 64 65 64 63 64 63 65 63 64 64 61 62 63 64
58 58 59 59 58 58 57 60 59 58 59 59 61 63 66 67 66 66 65 66 65 64 65 64 64 62 62 65 57 58 62 63
59 59 59 60 60 60 58 61 60 62 61 61 61 63 66 68 67 67 66 66 66 66 65 64 64 62 61 62 62 64 62 60
61 60 60 61 60 62 61 63 66 62 62 62 62 66 67 67 67 67 66 65 65 64 62 62 63 64 63 61 60 61 61 59
59 59 61 61 62 63 61 64 64 61 64 63 63 64 65 65 67 66 66 65 64 64 64 63 63 63 64 63 61 60 57 56
58 58 60 61 61 64 62 63 63 64 63 64 63 62 62 64 64 64 65 65 65 65 64 63 63 62 62 61 61 63 63 58
58 58 58 61 61 62 63 64 64 64 65 66 64 64 65 65 64 65 66 66 65 65 64 64 63 61 61 60 59 57 56 57

GFSFLT2_sfc_temp_093.txt.gz
Temp
75 77 77 69 69 68 66 66 66 69 72 72 72 72 72 73 73 72 71 70 70 69 69 68 68 68 68 68 68 70 84 83
76 76 76 75 73 65 66 66 65 68 72 71 70 71 71 71 71 70 70 69 69 69 68 67 67 67 66 67 67 69 83 82
75 76 76 73 70 66 67 66 65 66 71 69 70 79 77 74 73 69 69 69 68 68 67 66 66 66 66 67 67 84 83 82
74 75 76 73 70 68 65 64 63 65 74 73 81 78 78 79 71 68 69 68 67 67 66 65 69 75 75 68 78 83 82 79
72 74 76 71 67 67 65 64 65 68 74 75 78 79 77 74 73 73 72 70 73 72 70 76 77 77 77 79 80 81 81 78
72 71 72 73 70 68 66 65 63 66 70 75 74 76 74 75 76 75 74 77 74 75 76 79 78 78 78 78 79 81 81 77
70 70 70 70 70 66 67 65 65 64 66 70 72 75 75 76 77 78 78 79 78 77 78 78 77 77 78 77 78 80 79 78
68 66 67 67 71 68 64 67 65 64 64 66 69 70 73 75 78 80 80 80 80 80 79 78 78 77 76 77 78 78 80 77
64 63 64 64 68 67 68 68 65 64 65 67 67 67 72 73 77 80 82 81 79 79 78 78 78 78 76 77 78 77 78 78
64 63 62 64 65 67 67 65 65 64 65 65 66 68 74 76 79 79 81 80 79 77 77 76 76 77 76 77 77 78 77 76
63 61 64 65 65 64 64 65 65 63 64 64 65 67 71 75 78 78 77 77 76 76 74 72 74 76 76 77 77 77 76 77
62 63 65 63 61 61 61 62 62 63 62 63 64 67 69 74 73 72 74 72 71 71 69 73 75 75 78 75 74 75 76 75
64 61 62 61 62 59 59 58 60 60 61 63 64 66 68 69 70 71 70 70 67 67 67 68 71 73 72 69 71 73 73 73
64 65 65 64 64 64 60 59 59 60 60 61 63 64 67 67 66 67 68 66 66 67 67 67 69 69 66 69 65 67 69 71
64 65 66 66 63 64 63 61 60 59 60 60 63 65 68 68 68 68 67 66 68 69 68 68 66 66 69 70 64 62 65 71
65 65 65 66 68 66 62 62 61 62 61 62 64 67 68 68 70 68 68 71 69 64 69 68 70 69 70 71 71 69 64 62
67 64 64 65 66 67 65 64 62 62 61 60 63 65 66 70 72 71 69 70 69 68 70 70 71 69 69 70 68 69 69 64
69 65 64 64 66 66 65 62 61 62 60 59 61 63 65 67 73 71 73 72 71 71 71 70 69 70 71 70 68 67 67 64
68 66 63 63 64 65 66 65 64 64 62 62 60 61 62 64 66 68 71 71 71 71 70 70 69 67 68 69 69 69 70 68
68 67 65 64 63 64 67 65 63 64 68 67 65 63 63 65 65 67 71 72 71 71 70 70 69 67 69 69 70 70 69 68

GFSFLT2_sfc_temp_096.txt.gz
Temp
76 76 74 70 69 69 68 68 68 68 65 66 72 72 72 72 72 72 72 71 70 69 69 68 69 68 68 68 68 69 75 72
75 75 74 71 69 67 67 67 67 67 67 65 70 69 71 71 70 70 70 70 69 69 68 67 67 67 67 68 68 69 74 72
74 72 73 72 70 67 67 68 66 65 65 63 68 72 72 71 70 69 69 69 68 68 67 66 66 67 67 67 67 71 73 70
71 72 71 71 71 67 65 65 65 64 64 63 70 71 72 72 69 68 68 68 67 67 66 66 68 65 65 66 67 74 71 69
70 70 70 69 68 66 63 63 63 62 63 61 68 71 70 68 67 67 66 67 66 65 65 68 67 66 67 67 70 73 70 68
70 72 70 69 67 65 64 63 61 63 63 65 68 70 68 68 67 66 66 67 65 65 66 67 66 68 68 69 70 72 69 67
69 69 68 68 66 65 64 63 63 63 65 66 69 70 67 69 69 67 68 68 67 66 66 69 67 68 68 69 69 71 68 67
67 68 68 67 66 65 65 64 63 64 65 68 70 70 68 69 69 69 69 69 70 68 69 67 67 67 67 69 69 69 69 67
66 64 64 65 66 66 64 65 64 63 63 64 69 70 70 70 69 69 71 70 69 67 69 67 66 68 67 67 68 68 69 67
63 63 62 63 66 65 64 65 64 63 63 63 65 67 70 70 69 71 71 71 70 69 66 65 64 64 64 65 66 67 68 68
63 63 62 63 64 65 65 64 64 63 63 64 63 65 68 70 69 68 72 71 68 69 65 64 63 63 65 65 65 65 66 70
63 61 63 63 62 61 63 64 64 64 63 63 64 64 67 69 66 67 67 68 64 64 63 64 63 64 72 67 63 64 65 63
62 61 61 61 59 58 60 60 61 61 63 64 63 64 65 66 65 66 64 64 63 63 62 62 61 63 62 61 60 64 64 63
63 62 62 62 61 60 59 60 60 60 60 61 62 63 64 65 64 64 64 63 62 62 61 60 61 61 58 58 55 58 60 62
63 64 63 62 62 60 59 59 59 58 58 59 61 62 63 64 63 63 62 63 62 61 62 61 59 59 60 59 55 53 56 59
65 66 65 62 64 62 60 58 56 58 59 58 59 60 61 63 64 63 62 63 62 62 64 62 62 58 59 64 60 60 54 53
65 65 65 64 63 63 62 61 61 60 58 58 58 60 60 63 63 61 61 62 61 61 62 61 62 61 60 59 58 59 59 55
65 64 64 64 65 63 63 62 60 59 59 58 59 60 61 62 64 62 63 63 61 62 62 63 62 62 62 60 59 58 57 55
63 63 62 63 64 64 64 62 61 60 60 60 60 60 61 62 63 62 62 63 64 64 64 63 62 60 60 60 60 60 61 59
65 64 63 63 64 63 64 63 63 62 62 62 61 61 62 64 64 65 63 64 64 65 62 62 61 61 60 60 60 60 61 60

GFSFLT2_sfc_temp_099.txt.gz
Temp
68 68 70 70 69 69 68 68 70 69 69 66 66 68 71 72 72 72 72 71 70 70 70 69 69 69 68 68 67 69 67 67
69 69 69 67 66 67 67 66 67 68 68 68 66 64 68 71 71 71 70 70 69 69 68 68 68 68 68 66 69 68 67 66
68 69 71 67 65 66 66 67 66 67 67 67 65 63 67 70 70 69 69 69 69 68 68 67 67 67 67 67 67 68 66 66
66 67 67 67 68 64 63 64 64 63 64 63 62 64 67 69 68 68 68 68 67 67 67 67 66 62 64 66 68 66 66 65
65 66 66 65 64 63 62 63 64 62 62 62 62 65 67 66 66 66 65 66 64 64 65 63 63 62 63 63 66 66 65 65
64 65 65 64 63 62 62 61 63 62 62 62 63 65 65 66 65 63 63 62 61 61 59 61 62 64 65 64 66 65 64 63
63 64 63 63 63 63 62 62 61 62 61 62 61 66 65 66 63 62 63 62 62 59 59 64 62 63 64 65 65 64 64 64
62 63 62 62 62 62 63 62 61 62 63 63 62 66 66 64 63 63 63 64 63 60 62 60 60 62 63 65 65 64 64 62
60 61 62 61 63 62 63 62 63 63 64 64 65 67 68 65 63 64 64 65 63 61 62 61 60 63 63 63 64 63 63 62
60 63 61 62 63 61 62 62 62 63 65 65 65 67 68 66 65 64 66 66 64 64 63 60 59 60 59 60 61 64 63 62
59 60 60 61 62 61 61 63 61 62 64 63 65 66 68 67 66 65 66 66 63 67 61 62 58 58 60 59 60 60 63 65
61 59 59 61 60 60 60 60 62 61 62 63 63 64 68 68 65 63 66 65 63 64 61 59 59 60 68 62 59 60 61 61
59 60 60 59 59 59 59 60 61 61 61 63 62 62 64 65 64 63 61 65 66 65 59 61 58 59 58 57 59 61 61 60
60 61 60 60 60 59 60 61 62 62 62 62 62 61 62 65 64 62 62 62 62 60 60 57 57 58 57 56 53 56 60 60
60 61 59 61 60 59 59 59 59 59 60 60 60 61 62 64 64 62 60 60 61 60 61 60 57 57 60 55 52 51 53 57
62 62 61 61 59 59 59 57 57 59 59 60 59 60 61 62 63 63 62 61 60 61 62 59 59 57 57 61 57 58 53 51
63 62 61 61 61 60 60 58 58 59 58 58 58 59 60 62 63 62 61 61 60 60 60 61 60 57 57 55 55 55 55 53
62 62 60 61 62 62 61 58 57 55 57 57 57 58 59 60 62 61 61 60 60 60 60 60 60 59 59 57 57 55 53 53
62 61 60 61 61 60 61 58 58 57 57 57 57 56 57 58 60 60 60 61 62 61 60 60 60 57 58 58 57 58 58 56
62 61 60 61 61 61 62 60 59 59 59 59 59 58 59 61 61 62 62 62 61 60 59 60 60 59 58 57 57 58 57 57

GFSFLT2_sfc_temp_102.txt.gz
Temp
67 68 70 70 70 70 70 70 71 70 70 68 68 68 68 69 71 72 72 71 71 70 70 70 69 69 68 68 67 67 66 66
66 66 67 67 67 68 67 68 69 67 69 67 66 67 67 67 70 70 71 70 70 69 69 69 68 68 67 67 66 67 64 63
65 66 66 66 65 67 67 68 68 67 68 67 66 66 67 67 70 69 70 69 69 68 68 68 67 66 67 66 67 65 64 63
64 65 65 65 67 64 65 65 66 66 65 65 65 64 64 66 67 68 68 68 68 68 68 67 66 65 67 66 65 64 64 63
63 64 64 65 64 63 62 63 62 62 62 62 63 62 64 65 66 66 66 66 64 64 65 65 63 62 63 63 63 63 62 64
62 63 63 63 63 62 62 62 62 60 61 61 61 62 62 65 65 64 63 62 60 59 61 61 61 62 64 62 62 62 60 62
61 62 62 62 62 62 61 61 63 63 62 62 62 64 64 65 65 64 61 59 60 58 58 60 61 62 64 62 61 60 61 61
61 61 61 61 61 63 62 61 62 62 62 62 63 63 65 65 63 61 59 59 59 58 58 59 60 62 61 62 61 61 61 59
60 60 60 61 61 62 63 62 61 61 62 62 63 65 65 63 61 60 60 59 58 57 58 59 59 63 60 61 61 59 60 59
59 61 60 61 60 60 63 62 62 62 62 62 63 66 65 63 62 61 61 60 60 60 60 58 59 60 59 60 59 59 59 59
58 58 59 60 62 59 62 61 62 62 64 62 64 64 64 63 63 62 62 62 60 62 60 61 58 57 60 57 56 57 58 61
58 57 58 61 61 59 60 61 61 62 63 63 64 64 65 64 63 61 63 62 60 61 59 57 57 58 64 60 58 57 57 58
57 57 59 59 58 58 58 59 60 61 62 64 64 63 65 65 64 63 63 62 61 60 59 59 55 57 55 54 56 58 59 59
56 57 60 60 59 58 58 59 61 61 61 63 63 62 64 66 65 65 63 63 60 60 59 55 55 56 55 53 53 56 57 57
57 57 59 59 60 59 59 59 61 59 60 59 61 61 63 66 64 64 63 64 62 62 62 60 60 56 61 54 50 49 52 55
57 57 57 58 60 59 58 59 59 60 60 60 58 59 60 63 62 63 63 63 61 63 63 60 59 58 56 58 56 55 50 51
57 57 57 58 59 60 58 58 59 60 60 58 58 59 60 61 62 60 60 61 59 60 60 58 59 56 56 54 54 53 54 53
57 57 57 59 59 60 59 57 57 57 58 57 57 58 59 60 60 60 59 59 58 59 59 59 58 57 57 56 55 54 53 52
58 57 58 59 59 60 59 58 58 58 58 57 57 57 57 58 59 58 59 59 59 59 59 59 59 57 56 56 57 58 56 55
58 58 59 60 60 57 59 60 59 59 59 59 58 58 57 58 60 61 60 61 59 59 59 58 59 57 57 57 57 58 57 57

GFSFLT2_sfc_temp_105.txt.gz
Temp
67 68 70 70 70 70 70 70 70 71 70 70 69 68 69 70 70 72 72 72 71 70 70 69 70 69 68 67 66 67 65 66
65 66 67 67 68 69 69 69 68 68 68 68 68 68 67 69 68 70 71 71 70 70 69 69 68 68 67 66 66 66 63 62
64 65 65 65 65 66 68 68 68 67 67 66 66 67 67 67 68 69 71 70 69 69 68 67 66 67 66 66 66 64 64 62
63 64 64 64 65 65 64 66 66 67 67 66 65 65 66 67 67 68 70 68 68 68 67 66 66 64 65 65 64 63 62 60
62 63 63 64 63 64 64 65 65 65 65 64 64 64 65 63 64 66 66 67 65 65 64 62 62 64 61 63 62 61 58 60
62 62 64 65 63 62 62 64 63 62 64 64 62 62 62 62 65 66 64 64 61 61 59 60 60 61 62 62 61 61 57 58
61 61 62 63 63 62 61 62 62 61 62 62 62 61 62 63 65 64 64 60 61 60 60 59 60 62 61 61 59 58 58 58
60 61 61 61 61 62 62 62 63 62 61 61 62 63 63 63 64 64 61 62 60 60 60 61 59 60 59 60 59 59 57 57
60 60 60 60 60 63 62 61 62 62 62 62 62 64 63 65 65 63 61 60 57 56 57 57 57 61 58 59 59 58 58 57
59 61 59 59 59 63 63 63 61 61 62 62 62 63 65 63 63 61 59 59 59 59 58 56 59 59 56 56 57 58 57 57
59 58 58 58 59 59 62 62 61 62 62 61 62 62 64 63 62 60 59 59 59 59 54 57 58 57 57 54 55 56 57 60
58 57 57 58 59 59 61 61 61 63 62 62 61 63 62 62 61 59 60 59 57 58 58 54 56 57 61 56 53 54 55 56
56 56 56 58 59 58 58 59 60 61 62 62 63 62 62 61 61 60 59 60 59 58 57 56 53 56 56 53 53 54 54 55
56 56 57 58 58 57 59 59 60 60 61 62 61 61 62 62 61 61 59 60 57 59 58 53 53 56 54 52 48 52 55 55
56 57 57 58 60 59 58 58 60 59 60 62 61 60 62 62 62 62 61 61 59 59 59 55 57 52 59 54 48 49 50 53
56 58 56 57 58 58 59 58 58 59 59 60 61 60 61 62 63 63 62 62 61 61 62 58 58 56 53 57 56 55 50 48
56 57 55 56 59 59 57 58 60 60 58 58 59 60 60 61 61 61 60 61 60 61 60 58 61 58 57 54 54 54 53 52
55 57 58 56 57 59 59 58 58 59 58 56 58 59 59 60 61 60 59 59 58 58 59 59 60 58 57 55 54 54 52 52
56 57 57 56 60 59 58 58 59 59 59 57 56 57 58 59 60 59 59 59 59 58 58 58 57 56 57 55 57 57 56 54
57 57 57 57 56 58 59 59 59 59 60 59 58 58 59 59 60 59 59 59 59 58 57 57 57 57 57 57 56 57 57 56

GFSFLT2_sfc_temp_111.txt.gz
Temp
75 75 74 70 70 71 70 71 71 71 71 71 72 72 72 73 73 73 73 72 72 70 69 69 69 68 68 67 66 69 78 78
75 75 75 75 75 69 69 69 69 69 69 68 69 70 70 71 71 72 72 72 71 69 68 68 67 67 67 66 66 68 78 77
74 73 73 73 73 73 69 68 69 68 69 68 68 73 74 73 70 71 71 71 70 68 68 67 66 66 66 66 68 77 76 76
73 73 71 70 72 71 73 71 71 71 72 72 73 72 73 75 72 69 70 70 69 68 68 66 69 75 73 67 76 74 75 73
71 72 73 70 70 68 69 68 68 69 70 72 71 71 72 71 68 70 70 70 72 70 70 71 74 75 74 74 73 73 74 76
72 72 71 70 69 67 67 67 67 66 67 68 70 70 71 71 67 70 68 70 69 72 68 68 72 73 72 72 72 74 75 75
71 71 71 68 67 66 66 66 67 66 65 66 67 70 69 69 71 67 69 67 68 65 70 68 71 71 72 72 71 72 72 74
71 70 69 68 67 66 66 66 67 68 65 65 66 66 67 70 70 70 65 67 66 67 70 67 71 71 70 71 71 71 72 72
70 69 68 67 67 66 65 65 65 65 66 65 66 65 65 68 69 65 68 69 66 67 69 70 70 71 70 70 70 70 71 71
70 69 66 66 66 67 65 64 64 63 63 63 65 66 66 66 68 65 67 67 67 68 69 69 68 67 69 68 69 69 70 71
68 68 67 64 65 65 64 65 64 63 63 63 63 64 64 65 69 66 67 65 68 66 68 68 66 67 68 68 68 70 69 71
69 68 68 64 64 64 64 65 64 65 64 63 63 63 63 63 66 66 64 63 64 68 65 68 68 68 66 66 67 68 70 70
67 66 65 64 62 61 62 61 62 62 63 63 63 63 62 63 62 61 62 62 63 66 65 64 63 67 64 63 65 65 66 68
65 66 64 65 65 63 67 63 62 63 64 64 65 63 63 63 61 60 60 60 61 63 65 64 64 66 65 64 59 62 64 65
62 64 63 65 67 65 62 63 62 61 62 63 63 63 63 62 62 61 60 60 59 61 65 65 62 64 67 67 59 60 61 65
62 63 63 63 64 64 61 62 62 62 62 63 61 62 62 61 60 61 60 60 60 61 66 67 65 62 66 67 68 66 62 58
61 65 63 61 62 62 61 62 63 62 61 61 61 61 60 59 59 58 59 59 61 61 63 66 67 65 65 64 64 66 65 65
62 64 61 60 63 62 62 62 62 61 60 59 59 58 57 57 57 57 58 58 60 62 63 66 66 66 68 65 65 67 65 65
61 62 58 60 63 64 64 63 62 63 61 59 57 56 55 55 56 56 58 61 62 61 62 63 65 65 65 65 66 67 67 66
59 59 58 60 62 64 65 64 63 63 61 61 58 58 56 57 57 59 61 61 61 61 60 61 63 61 61 63 65 66 67 67

GFSFLT2_sfc_temp_114.txt.gz
Temp
82 81 77 71 71 71 70 71 71 71 72 72 72 71 71 73 74 73 73 72 72 71 70 69 69 68 68 68 68 71 79 79
83 83 81 79 79 70 69 70 70 70 70 70 68 69 70 72 71 72 72 71 71 70 69 68 68 67 67 67 68 70 80 80
84 83 82 79 78 77 70 70 69 68 70 69 69 79 78 77 75 70 71 70 70 69 68 67 66 66 66 67 68 80 78 80
85 83 82 77 76 77 78 80 80 80 79 78 81 79 81 81 76 69 70 70 68 68 67 66 69 77 75 69 79 79 82 81
83 83 81 75 76 76 79 76 79 78 79 78 79 78 79 80 80 78 74 69 76 72 71 78 77 77 77 78 80 81 84 84
82 83 81 74 74 76 77 71 73 71 74 75 74 76 76 79 81 80 77 69 72 74 74 76 77 79 79 79 79 82 83 84
82 83 81 75 72 73 75 72 70 70 70 72 72 76 76 80 80 79 77 72 67 69 73 75 75 77 79 79 79 80 80 83
83 82 81 77 74 73 72 74 72 69 69 72 73 74 72 76 74 76 71 70 67 69 67 74 75 77 78 78 78 79 79 79
83 81 81 77 77 76 74 75 75 68 68 70 72 71 70 73 74 74 75 71 70 67 66 72 75 78 77 77 79 78 79 78
84 83 79 75 76 76 76 74 73 71 68 68 69 69 70 70 70 72 72 68 69 66 67 73 76 77 74 76 78 78 77 77
82 80 78 74 76 74 72 72 70 69 67 68 70 69 68 69 68 71 70 67 70 68 66 74 75 77 75 76 77 77 76 78
82 79 78 72 71 68 70 71 69 68 67 66 67 67 68 66 65 66 67 66 70 69 68 74 75 75 75 73 75 75 77 76
79 77 77 68 67 65 66 67 66 69 71 66 64 65 65 65 64 64 65 65 70 69 71 72 71 74 71 68 70 71 72 76
78 79 77 68 68 72 72 66 66 67 67 66 66 64 64 64 63 63 63 66 65 66 70 71 70 74 69 69 61 64 70 74
78 79 78 72 75 71 74 73 68 68 67 66 65 65 64 63 63 62 62 63 63 64 69 71 68 71 73 71 65 64 68 72
75 77 76 74 76 73 73 72 70 70 71 70 66 70 68 64 63 61 61 61 62 63 66 68 71 68 73 76 75 75 67 63
68 71 71 73 75 76 74 73 74 70 72 71 69 67 65 65 63 61 61 60 61 61 64 66 69 73 72 71 71 72 74 72
65 68 67 68 70 74 73 70 68 68 69 67 66 64 63 61 61 61 60 60 59 61 62 65 71 72 72 72 71 71 71 72
63 67 65 63 66 69 71 69 66 66 66 69 64 60 58 58 59 58 59 59 59 60 61 63 68 70 69 72 73 74 76 74
63 65 64 63 67 68 69 68 69 69 72 70 63 60 58 58 57 57 58 58 59 59 60 61 65 68 70 71 73 74 74 75

GFSFLT2_sfc_temp_117.txt.gz
Temp
83 81 78 71 71 71 71 71 72 72 72 72 70 69 70 72 72 71 71 73 72 71 70 70 70 69 69 69 69 70 81 77
85 84 81 80 79 70 70 70 70 70 71 70 68 68 70 70 71 73 73 72 71 70 69 69 69 68 68 68 69 69 79 79
87 85 83 82 81 78 71 70 69 69 71 68 68 78 78 77 75 71 71 70 69 68 68 68 67 67 68 68 69 80 78 76
87 86 84 83 81 80 79 81 81 81 81 78 78 80 81 81 76 69 70 69 68 68 67 66 69 77 75 68 78 79 77 76
87 86 85 84 78 80 81 81 83 82 81 81 80 80 78 81 77 78 74 71 75 70 66 75 78 78 78 76 78 80 77 76
87 87 84 81 82 82 84 81 84 83 81 79 77 77 77 77 81 80 76 74 74 71 77 77 77 77 77 76 76 82 85 82
87 87 85 80 80 83 84 81 82 82 82 78 77 76 77 79 79 77 75 72 72 69 76 75 76 77 78 76 81 83 83 81
89 86 86 83 75 77 80 80 80 77 77 79 77 76 75 77 76 76 71 73 71 66 68 75 73 77 76 81 81 82 82 82
89 86 86 84 76 76 78 82 80 76 75 78 77 75 75 75 75 75 75 73 68 65 64 66 73 76 74 80 80 80 80 80
90 89 85 84 81 81 82 80 79 76 73 77 77 75 75 75 75 73 75 72 67 64 66 65 64 71 77 73 74 80 79 79
91 87 85 83 82 82 81 78 78 77 75 74 75 75 74 74 73 73 73 70 70 67 65 64 64 68 74 71 72 78 78 80
90 89 85 82 81 80 81 78 73 74 74 75 74 74 74 72 73 73 72 69 68 65 65 64 68 72 74 71 70 73 78 78
87 86 83 82 79 75 71 71 70 71 73 73 74 72 72 73 71 71 67 65 65 66 65 64 64 75 68 66 66 71 73 77
86 86 84 82 74 71 75 77 74 76 75 73 72 71 71 70 69 67 64 64 64 63 64 63 63 72 69 66 59 62 69 76
84 85 84 80 71 74 78 77 71 70 68 71 71 70 67 66 66 66 64 63 62 63 64 64 61 67 71 68 62 62 65 73
84 85 84 77 71 75 77 74 69 72 73 72 71 72 69 65 64 64 63 63 63 62 65 66 65 66 68 72 74 74 65 62
82 84 83 76 75 78 77 78 76 77 77 74 71 70 70 66 64 62 61 62 62 62 62 64 66 69 69 69 71 74 71 68
77 79 81 77 75 78 76 77 77 77 75 73 69 70 71 67 66 63 62 62 61 61 62 63 65 68 72 72 72 70 70 71
69 71 75 73 72 75 77 77 77 75 75 73 70 69 66 66 64 62 61 61 61 61 61 62 63 65 67 69 75 73 75 75
66 68 68 66 71 73 76 76 76 75 74 75 73 69 68 66 63 61 61 61 60 60 60 61 61 62 64 66 71 73 73 76

GFSFLT2_sfc_temp_120.txt.gz
Temp
76 75 74 72 71 71 71 71 72 73 72 71 70 71 71 71 71 71 70 71 71 71 70 70 70 70 70 68 68 70 71 74
77 77 75 74 73 70 70 70 70 71 70 70 69 69 69 70 70 71 71 71 71 69 69 70 69 69 69 68 69 70 69 71
79 78 77 76 75 73 70 70 70 69 70 69 67 71 71 71 71 70 71 70 70 69 68 67 66 67 67 67 68 69 70 69
81 79 78 77 79 74 74 74 74 74 74 69 71 73 72 76 73 70 71 68 68 68 67 66 67 66 67 66 69 72 70 69
82 80 79 78 76 76 75 76 75 75 75 73 73 74 72 70 70 69 68 68 68 68 66 67 69 68 68 68 71 71 70 71
82 81 79 78 77 76 76 75 76 75 75 74 73 72 71 70 69 70 69 69 68 68 65 67 69 70 70 69 69 70 69 70
82 81 79 79 76 76 76 75 76 76 75 75 73 71 71 70 71 70 72 69 68 67 66 67 68 69 70 70 71 70 71 70
82 81 80 79 77 76 76 76 77 75 75 75 73 72 70 71 69 69 68 68 68 67 66 67 67 70 68 69 72 74 73 69
81 80 80 78 75 76 77 76 75 74 73 74 73 71 70 70 68 68 68 68 68 65 64 64 66 69 69 72 72 73 71 71
83 84 80 79 75 74 75 75 75 74 72 73 73 72 71 70 68 68 68 67 66 64 63 62 62 64 68 68 70 72 70 70
82 81 79 78 74 74 74 75 75 74 72 72 73 72 71 69 68 68 68 66 65 64 63 64 61 62 64 68 68 69 68 73
81 81 79 78 77 75 75 75 74 75 72 72 71 71 71 69 68 68 68 66 64 65 63 63 64 63 67 68 67 68 69 65
80 79 78 77 77 74 73 73 71 70 70 70 70 70 70 69 67 67 67 65 65 64 63 62 61 64 61 61 62 66 67 65
79 80 79 79 78 76 75 74 69 69 69 70 69 70 70 69 67 66 66 65 64 64 63 61 61 64 60 61 55 59 64 67
78 79 79 79 77 73 71 70 70 68 68 68 68 70 69 69 67 67 65 64 63 63 62 62 60 62 63 62 54 53 59 64
77 78 78 78 73 70 70 68 68 69 68 68 67 68 67 67 66 66 64 64 63 63 63 61 61 60 61 64 65 63 58 53
75 77 77 74 71 70 70 70 70 69 69 66 67 67 67 66 65 65 64 64 63 62 62 62 62 62 62 63 64 62 65 60
74 76 77 71 70 71 70 71 69 70 69 67 66 66 66 65 64 64 64 63 63 62 62 62 61 62 64 65 64 62 62 62
72 73 74 71 71 70 71 72 72 71 70 69 66 65 65 65 64 62 62 62 62 63 62 62 62 61 63 64 67 65 67 65
67 67 68 71 71 70 70 71 71 71 70 70 67 66 64 65 63 63 62 62 62 61 61 62 62 61 61 62 65 67 66 67

GFSFLT2_sfc_temp_123.txt.gz
Temp
69 70 71 71 71 71 71 72 73 72 71 71 71 70 70 71 71 72 72 71 71 70 70 68 69 69 68 68 68 70 69 69
69 69 69 68 68 70 70 70 71 70 70 69 69 69 69 70 70 70 71 70 70 71 69 68 68 66 67 67 67 68 67 68
70 69 69 69 68 70 70 70 70 69 69 68 67 68 67 69 69 69 70 70 70 70 68 68 66 66 66 65 68 67 68 67
71 69 69 70 73 68 68 69 68 68 69 68 67 66 66 70 69 69 70 70 69 69 68 67 67 66 65 66 67 68 67 67
72 72 70 70 70 68 68 68 68 68 68 67 67 69 66 66 66 67 66 68 67 68 66 65 66 66 65 66 67 68 66 69
73 73 72 70 69 69 69 69 68 68 68 68 68 67 67 65 66 65 66 65 66 67 65 64 66 67 67 67 66 65 64 67
75 75 74 72 70 69 69 69 70 70 69 69 70 68 68 66 66 65 66 65 64 63 63 63 65 67 68 68 65 66 66 67
77 75 75 73 71 70 68 70 68 70 70 70 70 68 67 68 65 66 65 66 65 64 63 64 64 68 67 67 65 66 67 66
76 75 75 73 72 70 70 70 71 68 71 69 69 68 67 66 66 66 66 66 65 64 64 64 64 66 66 68 64 68 67 66
77 79 75 73 73 71 71 68 68 67 68 69 68 68 68 66 65 65 66 65 65 63 63 63 63 63 63 63 65 68 67 66
76 77 74 72 72 72 69 68 67 67 66 67 68 68 68 66 65 64 65 64 64 63 61 64 63 62 63 62 66 67 66 67
77 76 75 72 70 69 69 66 66 67 67 67 67 68 67 66 64 64 65 64 62 62 61 61 62 62 64 63 64 66 67 64
75 74 74 71 68 67 67 67 68 65 68 69 66 67 67 66 65 64 65 64 63 62 61 61 60 62 60 59 60 64 65 65
72 74 73 73 72 71 69 69 68 66 69 69 70 68 67 65 65 64 64 64 62 61 61 60 58 62 59 58 55 59 62 64
72 74 73 74 73 70 65 64 63 63 66 66 67 67 66 65 64 64 64 64 63 62 61 61 59 60 62 59 54 53 59 62
73 73 73 73 72 71 68 67 63 64 66 67 67 67 66 66 64 64 63 64 64 63 63 62 62 59 60 62 61 61 59 55
72 72 71 72 71 70 67 66 67 66 67 66 66 66 66 65 64 64 64 64 64 63 62 62 62 61 61 60 59 59 64 61
65 68 66 69 68 68 68 67 64 66 64 64 63 64 64 64 63 63 64 63 63 63 63 62 61 61 62 61 60 59 61 60
62 63 63 63 64 65 66 65 64 65 64 63 61 61 63 62 63 63 62 63 63 63 63 62 61 60 60 60 61 62 65 63
60 61 60 63 63 65 65 65 65 67 68 65 64 63 64 64 63 62 62 62 62 63 62 62 62 61 60 61 62 63 63 65

GFSFLT2_sfc_temp_126.txt.gz
Temp
69 70 71 71 70 70 71 71 71 71 71 71 71 70 70 71 71 71 71 71 71 70 70 69 69 68 67 67 68 67 67 67
67 68 69 69 70 69 69 70 70 70 70 69 68 69 69 69 70 70 70 70 71 71 69 69 69 67 66 66 66 67 66 66
67 68 68 68 68 70 69 70 69 69 69 68 66 67 67 68 69 69 70 70 70 70 68 68 67 67 66 66 66 66 66 65
67 67 67 67 70 69 68 70 69 69 67 67 65 64 65 69 68 69 70 70 69 69 68 67 67 67 65 66 65 66 65 65
67 67 68 68 68 68 69 68 69 69 67 65 64 65 64 65 65 66 65 68 66 66 66 65 65 66 65 65 66 65 65 67
69 69 68 68 68 67 69 69 68 68 68 65 65 64 63 63 64 64 64 66 67 66 65 63 64 66 66 66 66 65 64 67
70 70 69 69 68 67 67 67 68 69 67 67 66 66 64 64 64 64 65 66 66 65 64 63 64 65 65 66 65 65 65 67
71 70 71 70 69 68 67 67 67 67 69 68 67 67 65 66 64 64 64 64 64 63 62 62 62 64 64 65 66 65 65 65
72 71 71 71 70 69 69 69 68 67 68 68 68 67 66 65 64 64 65 64 63 61 61 62 62 64 66 65 65 64 64 65
74 75 71 70 71 70 70 69 69 68 68 68 68 68 67 65 64 64 64 64 64 62 61 61 62 63 63 62 63 64 64 64
74 74 71 71 71 71 70 69 69 67 69 68 68 68 67 66 65 64 64 64 63 62 60 62 61 62 62 61 62 63 64 65
75 74 73 72 71 69 68 67 67 67 67 68 68 67 67 66 64 64 64 63 62 61 61 59 61 62 63 61 61 62 62 63
73 73 73 71 68 66 66 66 66 66 67 67 67 67 66 65 64 63 64 63 62 62 60 60 58 60 60 59 59 60 61 63
72 73 72 72 70 70 70 69 66 67 67 66 67 67 67 67 66 64 63 63 61 61 61 58 58 62 58 59 55 56 58 62
71 73 72 73 72 69 64 64 62 64 65 66 67 67 67 67 66 64 64 64 63 62 61 61 58 60 61 60 54 53 57 60
74 74 72 72 71 68 66 66 64 67 67 67 66 67 66 66 65 65 64 65 63 62 61 62 61 59 58 61 61 60 57 52
71 72 72 71 70 70 67 66 67 64 65 64 66 66 66 65 65 64 63 64 64 63 62 62 62 60 61 60 58 58 65 59
65 69 71 70 70 70 69 66 64 63 64 63 64 65 64 64 64 64 64 64 64 63 62 62 62 62 62 62 61 59 59 60
61 63 61 66 68 68 68 66 65 64 64 63 63 62 63 63 64 63 63 64 64 63 62 62 62 61 61 61 62 62 60 60
59 60 61 62 62 64 65 65 66 65 65 64 63 63 63 64 63 63 63 63 62 63 62 62 62 61 60 60 61 61 60 61

GFSFLT2_sfc_temp_129.txt.gz
Temp
69 70 71 71 70 70 70 70 71 71 71 71 71 70 70 70 71 72 71 71 71 72 71 70 70 69 69 68 67 67 66 66
69 69 69 69 70 69 69 70 69 69 70 69 69 69 69 70 70 70 70 71 71 71 70 69 68 68 67 65 66 66 65 65
68 69 68 68 68 70 69 70 69 68 69 68 66 66 66 68 68 70 70 70 70 70 69 68 67 67 66 66 66 64 65 64
66 68 68 68 69 69 67 68 68 68 67 66 65 64 64 67 67 69 69 70 70 69 68 67 67 65 65 66 64 64 64 64
66 66 67 67 70 70 68 68 70 69 65 65 63 64 64 64 64 65 64 67 66 67 66 65 65 64 65 65 65 65 64 64
66 66 66 67 69 70 71 70 70 69 67 64 63 63 62 62 63 63 63 63 64 66 65 63 63 65 65 65 65 64 64 66
66 66 66 67 68 70 70 70 69 69 68 64 64 63 62 62 62 62 63 67 67 66 65 62 63 63 64 65 65 64 64 64
68 66 67 67 66 67 69 70 69 69 68 66 64 64 63 63 62 62 63 65 65 65 63 62 62 63 62 64 65 65 64 64
69 68 68 67 67 66 67 69 69 68 68 68 66 65 64 63 63 63 63 64 64 61 60 60 61 62 62 63 64 64 64 64
70 72 68 68 68 68 67 67 67 68 69 68 68 66 65 64 63 63 63 62 62 60 59 59 60 61 61 62 63 63 63 63
70 70 68 68 68 68 68 67 67 67 68 69 68 67 66 64 64 63 63 63 62 61 58 60 59 59 60 61 61 62 62 63
74 71 70 69 69 68 68 66 67 67 68 68 68 67 66 65 63 63 63 63 61 60 59 58 59 59 61 60 60 61 62 61
72 70 70 69 69 67 66 66 66 66 68 68 67 67 66 65 64 63 63 63 63 61 58 59 57 59 60 58 58 59 60 61
72 72 71 70 70 70 69 68 67 67 68 68 67 66 66 65 63 63 64 63 61 60 59 56 58 61 58 59 55 56 58 59
70 73 73 71 71 70 65 64 64 65 65 66 67 66 66 67 65 64 64 63 62 61 61 61 59 61 62 59 54 53 55 57
68 72 73 72 71 69 66 67 65 67 68 68 67 67 66 68 66 65 65 65 63 62 62 62 62 59 59 61 60 57 53 51
66 71 73 72 70 70 68 68 68 66 68 67 66 66 67 67 66 65 64 65 64 63 61 62 62 62 62 60 57 58 60 56
63 69 71 72 70 69 68 68 65 64 66 66 65 65 65 65 65 65 65 64 63 63 63 62 61 62 62 62 62 59 56 55
59 65 66 68 68 68 68 68 65 64 65 65 64 63 64 64 64 63 63 64 64 64 63 62 61 61 61 61 62 62 60 62
58 61 61 66 68 67 67 65 65 64 64 65 64 64 64 64 64 64 64 63 63 63 63 62 62 61 61 61 61 62 62 61

GFSFLT2_sfc_temp_132.txt.gz
Temp
67 69 70 71 70 70 70 70 70 71 71 71 71 70 70 71 72 72 72 72 73 72 71 70 70 70 69 68 67 67 67 66
67 70 70 68 70 69 69 69 69 69 70 70 69 69 69 70 70 71 71 72 73 71 70 70 69 68 68 66 66 66 66 66
69 70 70 68 67 69 69 69 69 69 69 68 67 66 67 68 68 70 70 71 70 69 69 68 67 67 66 66 66 66 65 66
70 70 69 70 70 67 66 69 69 68 68 67 66 64 64 66 67 69 70 70 69 68 67 67 67 65 66 66 65 65 66 66
68 69 70 69 70 69 65 66 69 69 66 65 64 63 64 63 63 64 65 67 66 67 66 65 64 64 66 66 65 65 65 66
65 67 68 68 71 71 67 67 70 69 67 64 63 62 62 62 62 62 62 63 66 67 66 64 64 64 65 65 65 64 64 66
65 66 67 69 70 71 71 69 71 70 68 64 63 62 62 61 62 62 62 63 64 65 65 63 63 63 64 65 64 64 64 64
67 66 66 68 68 70 71 71 70 70 68 66 63 63 62 62 61 62 62 63 65 65 64 62 61 62 63 64 65 65 64 64
68 68 67 66 68 69 69 70 70 69 69 67 63 63 62 62 62 62 64 65 65 63 62 61 61 63 62 64 64 64 64 64
69 70 67 67 66 67 69 70 70 69 69 68 66 64 63 62 62 63 63 64 63 62 60 59 60 62 62 63 63 64 64 64
67 68 67 67 67 66 66 68 69 69 69 68 67 66 64 63 63 62 63 62 62 61 58 59 58 59 59 61 62 63 63 64
71 68 68 68 68 67 66 66 68 68 68 68 68 67 65 64 63 62 63 62 61 60 59 58 59 59 60 58 59 61 63 62
68 67 68 68 68 66 66 66 66 67 68 69 68 67 66 64 63 62 63 63 63 60 58 57 57 60 59 58 57 59 61 61
66 68 68 68 70 69 69 69 68 68 68 68 69 67 67 65 63 63 63 63 63 60 59 57 57 60 57 57 55 56 58 60
66 69 70 68 71 70 66 68 66 65 66 67 67 67 66 66 64 63 64 64 62 61 60 60 58 60 60 59 54 54 55 58
66 69 72 69 70 69 68 66 66 67 68 68 67 68 66 66 65 64 64 64 63 62 61 61 61 58 59 60 61 57 53 52
64 65 69 71 70 70 68 68 68 68 68 67 67 67 66 66 65 65 65 64 63 62 61 61 61 61 61 60 58 58 59 55
59 60 65 68 69 70 69 68 67 65 66 66 66 66 66 66 66 65 65 64 64 62 62 61 61 61 61 62 61 59 57 56
57 60 61 66 68 69 68 69 68 66 67 66 65 65 65 65 65 64 64 65 64 63 62 62 61 61 59 60 61 62 61 60
57 60 62 65 67 68 68 68 66 67 67 68 67 66 66 66 65 65 65 65 64 63 63 62 62 61 61 60 61 61 62 61

GFSFLT2_sfc_temp_135.txt.gz
Temp
75 76 75 70 70 70 70 70 71 71 71 71 71 71 71 72 72 73 73 73 73 72 71 70 70 70 69 68 67 69 79 80
73 75 76 76 76 69 69 69 69 70 70 70 69 69 70 71 71 72 72 73 72 70 70 69 69 68 68 67 67 68 76 78
74 75 74 73 74 74 70 69 69 69 70 69 69 78 77 75 72 70 72 72 70 70 68 68 68 67 67 66 68 74 76 77
74 74 74 72 73 73 74 74 76 77 77 76 76 76 77 77 73 69 70 70 69 69 67 66 69 75 71 69 76 75 77 77
74 73 72 71 72 72 72 72 72 73 75 75 75 75 74 75 75 76 75 72 76 74 72 75 74 71 74 75 76 74 77 78
74 74 72 70 71 72 72 71 71 71 72 74 74 74 74 72 74 74 75 76 74 75 71 72 74 74 74 73 72 71 77 79
74 74 72 72 69 71 72 71 72 71 71 72 75 74 73 73 73 73 76 74 71 72 70 73 73 72 74 69 69 74 73 70
76 73 73 73 73 70 73 74 76 74 71 70 72 74 72 74 72 73 72 75 74 71 69 67 72 73 73 74 74 73 71 67
77 74 74 73 73 71 72 75 74 73 73 69 70 72 72 72 72 73 74 74 72 70 68 67 69 68 70 70 69 67 66 66
76 77 74 73 74 74 73 74 73 73 72 71 68 71 72 71 71 71 72 72 72 67 65 65 66 66 67 66 68 68 67 66
75 76 76 72 74 74 73 72 74 72 72 72 69 70 71 71 70 69 68 69 67 66 63 68 65 64 65 65 66 66 68 68
72 75 76 73 74 72 72 71 74 73 71 71 70 68 70 71 70 68 67 65 64 64 68 70 72 68 67 64 64 65 66 68
71 71 74 73 72 68 67 67 70 71 70 71 70 69 68 70 70 68 67 65 65 67 69 68 65 68 63 61 62 65 65 67
70 73 75 74 74 73 73 72 70 72 72 70 70 69 68 68 70 68 67 67 66 66 68 65 66 67 65 64 57 58 61 65
70 72 74 75 74 73 73 72 70 68 68 68 69 69 68 68 69 68 67 67 65 65 69 68 66 64 70 69 59 61 62 63
68 70 73 76 75 73 70 69 68 70 70 71 70 69 68 68 68 69 67 67 65 64 68 70 70 64 66 71 71 70 65 57
67 69 72 76 73 74 72 72 74 74 71 69 69 68 68 68 67 68 67 66 66 65 64 67 70 70 67 67 68 67 64 62
66 67 71 73 74 74 73 72 73 72 70 68 67 67 67 67 67 67 68 67 67 65 65 67 68 70 70 71 69 66 66 63
65 67 70 71 73 73 73 73 73 71 69 70 67 65 65 65 66 66 68 68 67 65 64 65 68 68 68 68 70 70 72 68
64 68 69 71 73 72 73 74 72 73 72 73 70 68 69 68 66 67 68 67 67 65 64 64 67 66 66 65 66 69 71 70